Wetterdaten: Donnerstag, 25.12.2014
Datum Zeit Temp. Aussen +5cm Feuchte Auss Luftdruck Regen Sonnenschein Regendauer Solar Windben
25.12.2014 00:00 4,8 C 3,3 C 90 % 1020,0 hPa 0,0 l/m 0 min 0 min 0 W/m 23,0 km/h (4 Bft)
25.12.2014 00:02 4,8 C 3,3 C 90 % 1019,9 hPa 0,0 l/m 0 min 0 min 0 W/m 20,9 km/h (4 Bft)
25.12.2014 00:05 4,8 C 3,3 C 90 % 1019,9 hPa 0,0 l/m 0 min 0 min 0 W/m 16,7 km/h (3 Bft)
25.12.2014 00:06 4,8 C 3,3 C 90 % 1019,9 hPa 0,0 l/m 0 min 0 min 0 W/m 18,8 km/h (3 Bft)
25.12.2014 00:08 4,8 C 3,3 C 90 % 1019,9 hPa 0,0 l/m 0 min 0 min 0 W/m 18,8 km/h (3 Bft)
25.12.2014 00:10 4,8 C 3,3 C 90 % 1020,0 hPa 0,0 l/m 0 min 0 min 0 W/m 18,8 km/h (3 Bft)
25.12.2014 00:12 4,8 C 3,3 C 90 % 1019,9 hPa 0,0 l/m 0 min 0 min 0 W/m 18,8 km/h (3 Bft)
25.12.2014 00:14 4,8 C 3,3 C 90 % 1019,9 hPa 0,0 l/m 0 min 0 min 0 W/m 16,7 km/h (3 Bft)
25.12.2014 00:16 4,8 C 3,3 C 90 % 1020,1 hPa 0,0 l/m 0 min 0 min 0 W/m 16,7 km/h (3 Bft)
25.12.2014 00:18 4,8 C 3,3 C 90 % 1020,1 hPa 0,0 l/m 0 min 0 min 0 W/m 16,7 km/h (3 Bft)
25.12.2014 00:20 4,7 C 3,3 C 91 % 1020,1 hPa 0,0 l/m 0 min 0 min 0 W/m 14,6 km/h (3 Bft)
25.12.2014 00:22 4,7 C 3,3 C 91 % 1020,1 hPa 0,0 l/m 0 min 0 min 0 W/m 18,8 km/h (3 Bft)
25.12.2014 00:24 4,7 C 3,3 C 91 % 1020,1 hPa 0,0 l/m 0 min 0 min 0 W/m 16,7 km/h (3 Bft)
25.12.2014 00:26 4,7 C 3,3 C 91 % 1020,3 hPa 0,0 l/m 0 min 0 min 0 W/m 16,7 km/h (3 Bft)
25.12.2014 00:28 4,7 C 3,3 C 91 % 1020,2 hPa 0,0 l/m 0 min 0 min 0 W/m 16,7 km/h (3 Bft)
25.12.2014 00:30 4,7 C 3,3 C 91 % 1020,3 hPa 0,0 l/m 0 min 0 min 0 W/m 14,6 km/h (3 Bft)
25.12.2014 00:32 4,7 C 3,3 C 91 % 1020,3 hPa 0,0 l/m 0 min 0 min 0 W/m 18,8 km/h (3 Bft)
25.12.2014 00:34 4,7 C 3,3 C 91 % 1020,3 hPa 0,0 l/m 0 min 0 min 0 W/m 12,6 km/h (3 Bft)
25.12.2014 00:36 4,7 C 3,3 C 91 % 1020,3 hPa 0,0 l/m 0 min 0 min 0 W/m 16,7 km/h (3 Bft)
25.12.2014 00:38 4,7 C 3,3 C 91 % 1020,3 hPa 0,0 l/m 0 min 0 min 0 W/m 14,6 km/h (3 Bft)
25.12.2014 00:40 4,7 C 3,3 C 91 % 1020,3 hPa 0,0 l/m 0 min 0 min 0 W/m 12,6 km/h (3 Bft)
25.12.2014 00:42 4,6 C 3,3 C 91 % 1020,3 hPa 0,0 l/m 0 min 0 min 0 W/m 18,8 km/h (3 Bft)
25.12.2014 00:44 4,6 C 2,8 C 91 % 1020,3 hPa 0,0 l/m 0 min 0 min 0 W/m 16,7 km/h (3 Bft)
25.12.2014 00:46 4,6 C 3,3 C 91 % 1020,3 hPa 0,0 l/m 0 min 0 min 0 W/m 18,8 km/h (3 Bft)
25.12.2014 00:48 4,6 C 3,3 C 91 % 1020,2 hPa 0,0 l/m 0 min 0 min 0 W/m 23,0 km/h (4 Bft)
25.12.2014 00:50 4,6 C 2,8 C 91 % 1020,1 hPa 0,0 l/m 0 min 0 min 0 W/m 14,6 km/h (3 Bft)
25.12.2014 00:52 4,6 C 2,8 C 91 % 1020,2 hPa 0,0 l/m 0 min 0 min 0 W/m 14,6 km/h (3 Bft)
25.12.2014 00:54 4,6 C 2,8 C 91 % 1020,2 hPa 0,0 l/m 0 min 0 min 0 W/m 18,8 km/h (3 Bft)
25.12.2014 00:56 4,5 C 3,3 C 91 % 1020,2 hPa 0,0 l/m 0 min 0 min 0 W/m 20,9 km/h (4 Bft)
25.12.2014 00:58 4,6 C 3,3 C 91 % 1020,2 hPa 0,0 l/m 0 min 0 min 0 W/m 18,8 km/h (3 Bft)
25.12.2014 01:00 4,5 C 3,3 C 91 % 1020,2 hPa 0,0 l/m 0 min 0 min 0 W/m 18,8 km/h (3 Bft)
25.12.2014 01:02 4,5 C 3,3 C 91 % 1020,1 hPa 0,0 l/m 0 min 0 min 0 W/m 18,8 km/h (3 Bft)
25.12.2014 01:04 4,5 C 3,3 C 91 % 1020,2 hPa 0,0 l/m 0 min 0 min 0 W/m 20,9 km/h (4 Bft)
25.12.2014 01:06 4,5 C 3,3 C 90 % 1020,1 hPa 0,0 l/m 0 min 0 min 0 W/m 20,9 km/h (4 Bft)
25.12.2014 01:08 4,6 C 3,3 C 90 % 1020,2 hPa 0,0 l/m 0 min 0 min 0 W/m 25,1 km/h (4 Bft)
25.12.2014 01:10 4,6 C 3,3 C 90 % 1020,3 hPa 0,0 l/m 0 min 0 min 0 W/m 16,7 km/h (3 Bft)
25.12.2014 01:12 4,6 C 3,3 C 90 % 1020,2 hPa 0,0 l/m 0 min 0 min 0 W/m 18,8 km/h (3 Bft)
25.12.2014 01:14 4,6 C 3,3 C 90 % 1020,2 hPa 0,0 l/m 0 min 0 min 0 W/m 14,6 km/h (3 Bft)
25.12.2014 01:16 4,6 C 3,3 C 90 % 1020,3 hPa 0,0 l/m 0 min 0 min 0 W/m 18,8 km/h (3 Bft)
25.12.2014 01:18 4,5 C 2,8 C 90 % 1020,3 hPa 0,0 l/m 0 min 0 min 0 W/m 16,7 km/h (3 Bft)
25.12.2014 01:20 4,5 C 2,8 C 90 % 1020,3 hPa 0,0 l/m 0 min 0 min 0 W/m 18,8 km/h (3 Bft)
25.12.2014 01:22 4,5 C 2,8 C 90 % 1020,2 hPa 0,0 l/m 0 min 0 min 0 W/m 14,6 km/h (3 Bft)
25.12.2014 01:24 4,5 C 2,8 C 90 % 1020,3 hPa 0,0 l/m 0 min 0 min 0 W/m 16,7 km/h (3 Bft)
25.12.2014 01:26 4,4 C 2,8 C 90 % 1020,2 hPa 0,0 l/m 0 min 0 min 0 W/m 18,8 km/h (3 Bft)
25.12.2014 01:28 4,4 C 2,8 C 90 % 1020,3 hPa 0,0 l/m 0 min 0 min 0 W/m 16,7 km/h (3 Bft)
25.12.2014 01:30 4,4 C 2,8 C 90 % 1020,3 hPa 0,0 l/m 0 min 0 min 0 W/m 16,7 km/h (3 Bft)
25.12.2014 01:32 4,4 C 2,8 C 90 % 1020,4 hPa 0,0 l/m 0 min 0 min 0 W/m 14,6 km/h (3 Bft)
25.12.2014 01:34 4,4 C 2,8 C 90 % 1020,4 hPa 0,0 l/m 0 min 0 min 0 W/m 16,7 km/h (3 Bft)
25.12.2014 01:36 4,4 C 2,8 C 90 % 1020,4 hPa 0,0 l/m 0 min 0 min 0 W/m 16,7 km/h (3 Bft)
25.12.2014 01:38 4,4 C 2,8 C 90 % 1020,5 hPa 0,0 l/m 0 min 0 min 0 W/m 25,1 km/h (4 Bft)
25.12.2014 01:40 4,4 C 2,8 C 90 % 1020,5 hPa 0,0 l/m 0 min 0 min 0 W/m 18,8 km/h (3 Bft)
25.12.2014 01:42 4,4 C 2,8 C 89 % 1020,5 hPa 0,0 l/m 0 min 0 min 0 W/m 16,7 km/h (3 Bft)
25.12.2014 01:44 4,4 C 2,8 C 89 % 1020,4 hPa 0,0 l/m 0 min 0 min 0 W/m 16,7 km/h (3 Bft)
25.12.2014 01:46 4,4 C 2,8 C 89 % 1020,3 hPa 0,0 l/m 0 min 0 min 0 W/m 14,6 km/h (3 Bft)
25.12.2014 01:48 4,4 C 2,8 C 89 % 1020,3 hPa 0,0 l/m 0 min 0 min 0 W/m 23,0 km/h (4 Bft)
25.12.2014 01:50 4,3 C 2,8 C 89 % 1020,3 hPa 0,0 l/m 0 min 0 min 0 W/m 14,6 km/h (3 Bft)
25.12.2014 01:52 4,3 C 2,8 C 89 % 1020,4 hPa 0,0 l/m 0 min 0 min 0 W/m 18,8 km/h (3 Bft)
25.12.2014 01:54 4,3 C 2,8 C 89 % 1020,5 hPa 0,0 l/m 0 min 0 min 0 W/m 25,1 km/h (4 Bft)
25.12.2014 01:56 4,3 C 2,8 C 89 % 1020,5 hPa 0,0 l/m 0 min 0 min 0 W/m 23,0 km/h (4 Bft)
25.12.2014 01:58 4,3 C 2,8 C 89 % 1020,5 hPa 0,0 l/m 0 min 0 min 0 W/m 20,9 km/h (4 Bft)
25.12.2014 02:00 4,3 C 2,8 C 89 % 1020,5 hPa 0,0 l/m 0 min 0 min 0 W/m 20,9 km/h (4 Bft)
25.12.2014 02:02 4,3 C 2,8 C 89 % 1020,5 hPa 0,0 l/m 0 min 0 min 0 W/m 25,1 km/h (4 Bft)
25.12.2014 02:04 4,3 C 2,8 C 89 % 1020,4 hPa 0,0 l/m 0 min 0 min 0 W/m 27,2 km/h (4 Bft)
25.12.2014 02:06 4,3 C 2,8 C 89 % 1020,3 hPa 0,0 l/m 0 min 0 min 0 W/m 23,0 km/h (4 Bft)
25.12.2014 02:08 4,3 C 2,8 C 89 % 1020,3 hPa 0,0 l/m 0 min 0 min 0 W/m 20,9 km/h (4 Bft)
25.12.2014 02:10 4,3 C 2,8 C 89 % 1020,3 hPa 0,0 l/m 0 min 0 min 0 W/m 23,0 km/h (4 Bft)
25.12.2014 02:12 4,3 C 2,8 C 89 % 1020,3 hPa 0,0 l/m 0 min 0 min 0 W/m 25,1 km/h (4 Bft)
25.12.2014 02:14 4,3 C 2,8 C 88 % 1020,2 hPa 0,0 l/m 0 min 0 min 0 W/m 25,1 km/h (4 Bft)
25.12.2014 02:16 4,3 C 2,8 C 88 % 1020,3 hPa 0,0 l/m 0 min 0 min 0 W/m 23,0 km/h (4 Bft)
25.12.2014 02:18 4,3 C 2,8 C 88 % 1020,3 hPa 0,0 l/m 0 min 0 min 0 W/m 25,1 km/h (4 Bft)
25.12.2014 02:20 4,3 C 2,8 C 88 % 1020,3 hPa 0,0 l/m 0 min 0 min 0 W/m 29,3 km/h (5 Bft)
25.12.2014 02:22 4,3 C 2,8 C 88 % 1020,4 hPa 0,0 l/m 0 min 0 min 0 W/m 16,7 km/h (3 Bft)
25.12.2014 02:24 4,3 C 2,8 C 88 % 1020,3 hPa 0,0 l/m 0 min 0 min 0 W/m 23,0 km/h (4 Bft)
25.12.2014 02:26 4,3 C 2,8 C 88 % 1020,3 hPa 0,0 l/m 0 min 0 min 0 W/m 18,8 km/h (3 Bft)
25.12.2014 02:28 4,3 C 2,8 C 88 % 1020,4 hPa 0,0 l/m 0 min 0 min 0 W/m 18,8 km/h (3 Bft)
25.12.2014 02:30 4,3 C 2,8 C 88 % 1020,4 hPa 0,0 l/m 0 min 0 min 0 W/m 20,9 km/h (4 Bft)
25.12.2014 02:32 4,2 C 2,8 C 88 % 1020,4 hPa 0,0 l/m 0 min 0 min 0 W/m 25,1 km/h (4 Bft)
25.12.2014 02:34 4,2 C 2,8 C 88 % 1020,5 hPa 0,0 l/m 0 min 0 min 0 W/m 31,4 km/h (5 Bft)
25.12.2014 02:36 4,3 C 2,8 C 88 % 1020,4 hPa 0,0 l/m 0 min 0 min 0 W/m 23,0 km/h (4 Bft)
25.12.2014 02:38 4,2 C 2,8 C 88 % 1020,5 hPa 0,0 l/m 0 min 0 min 0 W/m 27,2 km/h (4 Bft)
25.12.2014 02:40 4,3 C 2,8 C 88 % 1020,5 hPa 0,0 l/m 0 min 0 min 0 W/m 27,2 km/h (4 Bft)
25.12.2014 02:42 4,2 C 2,8 C 88 % 1020,5 hPa 0,0 l/m 0 min 0 min 0 W/m 20,9 km/h (4 Bft)
25.12.2014 02:44 4,3 C 2,8 C 88 % 1020,7 hPa 0,0 l/m 0 min 0 min 0 W/m 20,9 km/h (4 Bft)
25.12.2014 02:46 4,2 C 2,8 C 88 % 1020,6 hPa 0,0 l/m 0 min 0 min 0 W/m 29,3 km/h (5 Bft)
25.12.2014 02:48 4,2 C 2,8 C 88 % 1020,7 hPa 0,0 l/m 0 min 0 min 0 W/m 27,2 km/h (4 Bft)
25.12.2014 02:50 4,3 C 2,8 C 88 % 1020,7 hPa 0,0 l/m 0 min 0 min 0 W/m 18,8 km/h (3 Bft)
25.12.2014 02:52 4,2 C 2,8 C 88 % 1020,8 hPa 0,0 l/m 0 min 0 min 0 W/m 18,8 km/h (3 Bft)
25.12.2014 02:54 4,2 C 2,8 C 88 % 1020,8 hPa 0,0 l/m 0 min 0 min 0 W/m 18,8 km/h (3 Bft)
25.12.2014 02:56 4,2 C 2,8 C 88 % 1020,8 hPa 0,0 l/m 0 min 0 min 0 W/m 20,9 km/h (4 Bft)
25.12.2014 02:58 4,2 C 2,8 C 88 % 1020,8 hPa 0,0 l/m 0 min 0 min 0 W/m 23,0 km/h (4 Bft)
25.12.2014 03:00 4,2 C 2,8 C 88 % 1020,8 hPa 0,0 l/m 0 min 0 min 0 W/m 25,1 km/h (4 Bft)
25.12.2014 03:02 4,2 C 2,8 C 88 % 1020,8 hPa 0,0 l/m 0 min 0 min 0 W/m 20,9 km/h (4 Bft)
25.12.2014 03:04 4,2 C 2,8 C 88 % 1020,8 hPa 0,0 l/m 0 min 0 min 0 W/m 23,0 km/h (4 Bft)
25.12.2014 03:06 4,2 C 2,8 C 88 % 1020,8 hPa 0,0 l/m 0 min 0 min 0 W/m 16,7 km/h (3 Bft)
25.12.2014 03:08 4,2 C 2,8 C 88 % 1020,8 hPa 0,0 l/m 0 min 0 min 0 W/m 18,8 km/h (3 Bft)
25.12.2014 03:10 4,2 C 2,8 C 88 % 1020,8 hPa 0,0 l/m 0 min 0 min 0 W/m 25,1 km/h (4 Bft)
25.12.2014 03:12 4,2 C 2,8 C 88 % 1020,8 hPa 0,0 l/m 0 min 0 min 0 W/m 16,7 km/h (3 Bft)
25.12.2014 03:14 4,1 C 2,8 C 88 % 1020,9 hPa 0,0 l/m 0 min 0 min 0 W/m 20,9 km/h (4 Bft)
25.12.2014 03:16 4,1 C 2,8 C 88 % 1020,9 hPa 0,0 l/m 0 min 0 min 0 W/m 20,9 km/h (4 Bft)
25.12.2014 03:18 4,1 C 2,8 C 88 % 1020,9 hPa 0,0 l/m 0 min 0 min 0 W/m 16,7 km/h (3 Bft)
25.12.2014 03:20 4,1 C 2,2 C 88 % 1020,9 hPa 0,0 l/m 0 min 0 min 0 W/m 14,6 km/h (3 Bft)
25.12.2014 03:22 4,1 C 2,2 C 88 % 1020,9 hPa 0,0 l/m 0 min 0 min 0 W/m 20,9 km/h (4 Bft)
25.12.2014 03:24 4,1 C 2,8 C 88 % 1020,9 hPa 0,0 l/m 0 min 0 min 0 W/m 25,1 km/h (4 Bft)
25.12.2014 03:26 4,1 C 2,8 C 88 % 1020,9 hPa 0,0 l/m 0 min 0 min 0 W/m 25,1 km/h (4 Bft)
25.12.2014 03:28 4,0 C 2,8 C 88 % 1020,9 hPa 0,0 l/m 0 min 0 min 0 W/m 18,8 km/h (3 Bft)
25.12.2014 03:30 4,0 C 2,8 C 88 % 1020,9 hPa 0,0 l/m 0 min 0 min 0 W/m 20,9 km/h (4 Bft)
25.12.2014 03:32 4,0 C 2,8 C 88 % 1020,9 hPa 0,0 l/m 0 min 0 min 0 W/m 23,0 km/h (4 Bft)
25.12.2014 03:34 4,0 C 2,8 C 88 % 1020,9 hPa 0,0 l/m 0 min 0 min 0 W/m 27,2 km/h (4 Bft)
25.12.2014 03:36 4,0 C 2,8 C 88 % 1020,8 hPa 0,0 l/m 0 min 0 min 0 W/m 23,0 km/h (4 Bft)
25.12.2014 03:38 4,0 C 2,8 C 88 % 1020,8 hPa 0,0 l/m 0 min 0 min 0 W/m 31,4 km/h (5 Bft)
25.12.2014 03:40 4,0 C 2,8 C 88 % 1020,8 hPa 0,0 l/m 0 min 0 min 0 W/m 27,2 km/h (4 Bft)
25.12.2014 03:42 4,0 C 2,8 C 88 % 1020,8 hPa 0,0 l/m 0 min 0 min 0 W/m 18,8 km/h (3 Bft)
25.12.2014 03:44 4,0 C 2,8 C 88 % 1020,7 hPa 0,0 l/m 0 min 0 min 0 W/m 31,4 km/h (5 Bft)
25.12.2014 03:46 3,9 C 2,8 C 88 % 1020,8 hPa 0,0 l/m 0 min 0 min 0 W/m 20,9 km/h (4 Bft)
25.12.2014 03:48 4,0 C 2,8 C 88 % 1020,7 hPa 0,0 l/m 0 min 0 min 0 W/m 25,1 km/h (4 Bft)
25.12.2014 03:50 4,0 C 2,8 C 89 % 1020,7 hPa 0,0 l/m 0 min 0 min 0 W/m 29,3 km/h (5 Bft)
25.12.2014 03:52 4,0 C 2,8 C 89 % 1020,7 hPa 0,0 l/m 0 min 0 min 0 W/m 25,1 km/h (4 Bft)
25.12.2014 03:54 4,0 C 2,8 C 89 % 1020,7 hPa 0,0 l/m 0 min 0 min 0 W/m 23,0 km/h (4 Bft)
25.12.2014 03:56 4,0 C 2,8 C 89 % 1020,7 hPa 0,0 l/m 0 min 0 min 0 W/m 20,9 km/h (4 Bft)
25.12.2014 03:58 4,0 C 2,8 C 89 % 1020,7 hPa 0,0 l/m 0 min 0 min 0 W/m 25,1 km/h (4 Bft)
25.12.2014 04:00 3,9 C 2,8 C 89 % 1020,7 hPa 0,0 l/m 0 min 0 min 0 W/m 25,1 km/h (4 Bft)
25.12.2014 04:02 4,0 C 2,8 C 89 % 1020,7 hPa 0,0 l/m 0 min 0 min 0 W/m 16,7 km/h (3 Bft)
25.12.2014 04:04 4,0 C 2,8 C 89 % 1020,6 hPa 0,0 l/m 0 min 0 min 0 W/m 25,1 km/h (4 Bft)
25.12.2014 04:06 4,0 C 2,8 C 89 % 1020,6 hPa 0,0 l/m 0 min 0 min 0 W/m 31,4 km/h (5 Bft)
25.12.2014 04:08 3,9 C 2,8 C 89 % 1020,5 hPa 0,0 l/m 0 min 0 min 0 W/m 31,4 km/h (5 Bft)
25.12.2014 04:10 3,9 C 2,8 C 89 % 1020,5 hPa 0,0 l/m 0 min 0 min 0 W/m 25,1 km/h (4 Bft)
25.12.2014 04:12 4,0 C 2,8 C 89 % 1020,5 hPa 0,0 l/m 0 min 0 min 0 W/m 23,0 km/h (4 Bft)
25.12.2014 04:14 4,0 C 2,8 C 89 % 1020,6 hPa 0,0 l/m 0 min 0 min 0 W/m 16,7 km/h (3 Bft)
25.12.2014 04:16 4,0 C 2,8 C 89 % 1020,7 hPa 0,0 l/m 0 min 0 min 0 W/m 20,9 km/h (4 Bft)
25.12.2014 04:18 4,0 C 2,8 C 89 % 1020,7 hPa 0,0 l/m 0 min 0 min 0 W/m 29,3 km/h (5 Bft)
25.12.2014 04:20 4,0 C 2,8 C 89 % 1020,6 hPa 0,0 l/m 0 min 0 min 0 W/m 23,0 km/h (4 Bft)
25.12.2014 04:22 4,0 C 2,8 C 89 % 1020,6 hPa 0,0 l/m 0 min 0 min 0 W/m 14,6 km/h (3 Bft)
25.12.2014 04:24 4,0 C 2,8 C 89 % 1020,6 hPa 0,0 l/m 0 min 0 min 0 W/m 25,1 km/h (4 Bft)
25.12.2014 04:26 4,0 C 2,8 C 89 % 1020,6 hPa 0,0 l/m 0 min 0 min 0 W/m 27,2 km/h (4 Bft)
25.12.2014 04:28 3,9 C 2,8 C 89 % 1020,6 hPa 0,0 l/m 0 min 0 min 0 W/m 20,9 km/h (4 Bft)
25.12.2014 04:30 3,9 C 2,2 C 89 % 1020,6 hPa 0,0 l/m 0 min 0 min 0 W/m 18,8 km/h (3 Bft)
25.12.2014 04:32 3,9 C 2,2 C 89 % 1020,6 hPa 0,0 l/m 0 min 0 min 0 W/m 12,6 km/h (3 Bft)
25.12.2014 04:34 3,9 C 2,2 C 89 % 1020,6 hPa 0,0 l/m 0 min 0 min 0 W/m 20,9 km/h (4 Bft)
25.12.2014 04:36 3,9 C 2,2 C 89 % 1020,6 hPa 0,0 l/m 0 min 0 min 0 W/m 16,7 km/h (3 Bft)
25.12.2014 04:38 3,9 C 2,2 C 89 % 1020,5 hPa 0,0 l/m 0 min 0 min 0 W/m 25,1 km/h (4 Bft)
25.12.2014 04:40 3,9 C 2,2 C 89 % 1020,5 hPa 0,0 l/m 0 min 0 min 0 W/m 27,2 km/h (4 Bft)
25.12.2014 04:42 3,9 C 2,2 C 89 % 1020,5 hPa 0,0 l/m 0 min 0 min 0 W/m 20,9 km/h (4 Bft)
25.12.2014 04:44 3,9 C 2,2 C 89 % 1020,5 hPa 0,0 l/m 0 min 0 min 0 W/m 25,1 km/h (4 Bft)
25.12.2014 04:46 3,9 C 2,8 C 89 % 1020,6 hPa 0,0 l/m 0 min 0 min 0 W/m 29,3 km/h (5 Bft)
25.12.2014 04:48 3,9 C 2,8 C 89 % 1020,5 hPa 0,0 l/m 0 min 0 min 0 W/m 20,9 km/h (4 Bft)
25.12.2014 04:50 3,9 C 2,8 C 89 % 1020,5 hPa 0,0 l/m 0 min 0 min 0 W/m 25,1 km/h (4 Bft)
25.12.2014 04:52 3,9 C 2,8 C 89 % 1020,5 hPa 0,0 l/m 0 min 0 min 0 W/m 33,5 km/h (5 Bft)
25.12.2014 04:54 3,9 C 2,8 C 89 % 1020,6 hPa 0,0 l/m 0 min 0 min 0 W/m 23,0 km/h (4 Bft)
25.12.2014 04:56 3,8 C 2,2 C 89 % 1020,6 hPa 0,0 l/m 0 min 0 min 0 W/m 27,2 km/h (4 Bft)
25.12.2014 04:58 3,8 C 2,2 C 89 % 1020,6 hPa 0,0 l/m 0 min 0 min 0 W/m 37,7 km/h (5 Bft)
25.12.2014 05:00 3,8 C 2,8 C 89 % 1020,6 hPa 0,0 l/m 0 min 0 min 0 W/m 31,4 km/h (5 Bft)
25.12.2014 05:02 3,8 C 2,2 C 89 % 1020,6 hPa 0,0 l/m 0 min 0 min 0 W/m 20,9 km/h (4 Bft)
25.12.2014 05:04 3,8 C 2,2 C 89 % 1020,7 hPa 0,0 l/m 0 min 0 min 0 W/m 23,0 km/h (4 Bft)
25.12.2014 05:06 3,8 C 2,2 C 89 % 1020,7 hPa 0,0 l/m 0 min 0 min 0 W/m 18,8 km/h (3 Bft)
25.12.2014 05:08 3,8 C 2,2 C 89 % 1020,7 hPa 0,0 l/m 0 min 0 min 0 W/m 20,9 km/h (4 Bft)
25.12.2014 05:10 3,8 C 2,2 C 89 % 1020,6 hPa 0,0 l/m 0 min 0 min 0 W/m 23,0 km/h (4 Bft)
25.12.2014 05:12 3,8 C 2,2 C 89 % 1020,5 hPa 0,0 l/m 0 min 0 min 0 W/m 23,0 km/h (4 Bft)
25.12.2014 05:14 3,8 C 2,2 C 89 % 1020,5 hPa 0,0 l/m 0 min 0 min 0 W/m 23,0 km/h (4 Bft)
25.12.2014 05:16 3,7 C 2,2 C 89 % 1020,6 hPa 0,0 l/m 0 min 0 min 0 W/m 23,0 km/h (4 Bft)
25.12.2014 05:18 3,7 C 2,2 C 89 % 1020,6 hPa 0,0 l/m 0 min 0 min 0 W/m 16,7 km/h (3 Bft)
25.12.2014 05:20 3,7 C 2,2 C 89 % 1020,5 hPa 0,0 l/m 0 min 0 min 0 W/m 31,4 km/h (5 Bft)
25.12.2014 05:22 3,7 C 2,2 C 89 % 1020,4 hPa 0,0 l/m 0 min 0 min 0 W/m 29,3 km/h (5 Bft)
25.12.2014 05:24 3,7 C 2,2 C 90 % 1020,5 hPa 0,0 l/m 0 min 0 min 0 W/m 35,6 km/h (5 Bft)
25.12.2014 05:26 3,7 C 2,2 C 90 % 1020,4 hPa 0,0 l/m 0 min 0 min 0 W/m 35,6 km/h (5 Bft)
25.12.2014 05:28 3,7 C 2,8 C 90 % 1020,5 hPa 0,0 l/m 0 min 0 min 0 W/m 33,5 km/h (5 Bft)
25.12.2014 05:30 3,7 C 2,8 C 90 % 1020,6 hPa 0,0 l/m 0 min 0 min 0 W/m 20,9 km/h (4 Bft)
25.12.2014 05:32 3,8 C 2,8 C 90 % 1020,6 hPa 0,0 l/m 0 min 0 min 0 W/m 23,0 km/h (4 Bft)
25.12.2014 05:34 3,8 C 2,2 C 90 % 1020,7 hPa 0,0 l/m 0 min 0 min 0 W/m 18,8 km/h (3 Bft)
25.12.2014 05:36 3,8 C 2,2 C 90 % 1020,6 hPa 0,0 l/m 0 min 0 min 0 W/m 27,2 km/h (4 Bft)
25.12.2014 05:38 3,8 C 2,2 C 90 % 1020,6 hPa 0,0 l/m 0 min 0 min 0 W/m 25,1 km/h (4 Bft)
25.12.2014 05:40 3,8 C 2,2 C 90 % 1020,5 hPa 0,0 l/m 0 min 0 min 0 W/m 20,9 km/h (4 Bft)
25.12.2014 05:42 3,8 C 2,2 C 90 % 1020,5 hPa 0,0 l/m 0 min 0 min 0 W/m 35,6 km/h (5 Bft)
25.12.2014 05:44 3,8 C 2,2 C 90 % 1020,5 hPa 0,0 l/m 0 min 0 min 0 W/m 33,5 km/h (5 Bft)
25.12.2014 05:46 3,8 C 2,8 C 90 % 1020,5 hPa 0,0 l/m 0 min 0 min 0 W/m 29,3 km/h (5 Bft)
25.12.2014 05:48 3,8 C 2,2 C 90 % 1020,5 hPa 0,0 l/m 0 min 0 min 0 W/m 27,2 km/h (4 Bft)
25.12.2014 05:50 3,8 C 2,2 C 90 % 1020,5 hPa 0,0 l/m 0 min 0 min 0 W/m 23,0 km/h (4 Bft)
25.12.2014 05:52 3,8 C 2,2 C 90 % 1020,5 hPa 0,0 l/m 0 min 0 min 0 W/m 23,0 km/h (4 Bft)
25.12.2014 05:54 3,8 C 2,2 C 90 % 1020,5 hPa 0,0 l/m 0 min 0 min 0 W/m 29,3 km/h (5 Bft)
25.12.2014 05:56 3,8 C 2,8 C 90 % 1020,4 hPa 0,0 l/m 0 min 0 min 0 W/m 31,4 km/h (5 Bft)
25.12.2014 05:58 3,8 C 2,8 C 90 % 1020,5 hPa 0,0 l/m 0 min 0 min 0 W/m 35,6 km/h (5 Bft)
25.12.2014 06:00 3,8 C 2,8 C 90 % 1020,5 hPa 0,0 l/m 0 min 0 min 0 W/m 29,3 km/h (5 Bft)
25.12.2014 06:02 3,8 C 2,8 C 90 % 1020,5 hPa 0,0 l/m 0 min 0 min 0 W/m 29,3 km/h (5 Bft)
25.12.2014 06:05 3,8 C 2,2 C 90 % 1020,5 hPa 0,0 l/m 0 min 0 min 0 W/m 27,2 km/h (4 Bft)
25.12.2014 06:08 3,8 C 2,2 C 90 % 1020,6 hPa 0,0 l/m 0 min 0 min 0 W/m 27,2 km/h (4 Bft)
25.12.2014 06:10 3,8 C 2,2 C 90 % 1020,6 hPa 0,0 l/m 0 min 0 min 0 W/m 27,2 km/h (4 Bft)
25.12.2014 06:12 3,8 C 2,2 C 90 % 1020,7 hPa 0,0 l/m 0 min 0 min 0 W/m 29,3 km/h (5 Bft)
25.12.2014 06:14 3,8 C 2,2 C 90 % 1020,7 hPa 0,0 l/m 0 min 0 min 0 W/m 23,0 km/h (4 Bft)
25.12.2014 06:16 3,7 C 2,2 C 90 % 1020,7 hPa 0,0 l/m 0 min 0 min 0 W/m 23,0 km/h (4 Bft)
25.12.2014 06:18 3,7 C 2,2 C 90 % 1020,8 hPa 0,0 l/m 0 min 0 min 0 W/m 20,9 km/h (4 Bft)
25.12.2014 06:20 3,7 C 2,2 C 90 % 1020,9 hPa 0,0 l/m 0 min 0 min 0 W/m 20,9 km/h (4 Bft)
25.12.2014 06:22 3,7 C 2,2 C 90 % 1020,9 hPa 0,0 l/m 0 min 0 min 0 W/m 23,0 km/h (4 Bft)
25.12.2014 06:24 3,7 C 2,2 C 90 % 1020,9 hPa 0,0 l/m 0 min 0 min 0 W/m 29,3 km/h (5 Bft)
25.12.2014 06:26 3,7 C 2,2 C 90 % 1020,9 hPa 0,0 l/m 0 min 0 min 0 W/m 25,1 km/h (4 Bft)
25.12.2014 06:28 3,7 C 2,2 C 90 % 1020,9 hPa 0,0 l/m 0 min 0 min 0 W/m 23,0 km/h (4 Bft)
25.12.2014 06:30 3,7 C 2,2 C 90 % 1020,9 hPa 0,0 l/m 0 min 0 min 0 W/m 23,0 km/h (4 Bft)
25.12.2014 06:32 3,7 C 2,2 C 90 % 1020,9 hPa 0,0 l/m 0 min 0 min 0 W/m 29,3 km/h (5 Bft)
25.12.2014 06:34 3,7 C 2,2 C 90 % 1020,9 hPa 0,0 l/m 0 min 0 min 0 W/m 27,2 km/h (4 Bft)
25.12.2014 06:36 3,7 C 2,2 C 90 % 1021,0 hPa 0,0 l/m 0 min 0 min 0 W/m 37,7 km/h (5 Bft)
25.12.2014 06:38 3,7 C 2,2 C 90 % 1021,1 hPa 0,0 l/m 0 min 0 min 0 W/m 20,9 km/h (4 Bft)
25.12.2014 06:40 3,6 C 2,2 C 90 % 1021,1 hPa 0,0 l/m 0 min 0 min 0 W/m 29,3 km/h (5 Bft)
25.12.2014 06:42 3,6 C 2,2 C 90 % 1021,1 hPa 0,0 l/m 0 min 0 min 0 W/m 25,1 km/h (4 Bft)
25.12.2014 06:44 3,6 C 2,2 C 90 % 1021,1 hPa 0,0 l/m 0 min 0 min 0 W/m 23,0 km/h (4 Bft)
25.12.2014 06:46 3,6 C 2,2 C 90 % 1021,1 hPa 0,0 l/m 0 min 0 min 0 W/m 23,0 km/h (4 Bft)
25.12.2014 06:48 3,6 C 2,2 C 90 % 1021,2 hPa 0,0 l/m 0 min 0 min 0 W/m 23,0 km/h (4 Bft)
25.12.2014 06:50 3,6 C 2,2 C 91 % 1021,2 hPa 0,0 l/m 0 min 0 min 0 W/m 20,9 km/h (4 Bft)
25.12.2014 06:52 3,6 C 2,2 C 91 % 1021,2 hPa 0,0 l/m 0 min 0 min 0 W/m 18,8 km/h (3 Bft)
25.12.2014 06:54 3,6 C 2,2 C 91 % 1021,1 hPa 0,0 l/m 0 min 0 min 0 W/m 20,9 km/h (4 Bft)
25.12.2014 06:56 3,6 C 2,8 C 91 % 1021,1 hPa 0,0 l/m 0 min 0 min 0 W/m 23,0 km/h (4 Bft)
25.12.2014 06:58 3,6 C 2,2 C 91 % 1021,2 hPa 0,0 l/m 0 min 0 min 0 W/m 27,2 km/h (4 Bft)
25.12.2014 07:00 3,6 C 2,2 C 91 % 1021,2 hPa 0,0 l/m 0 min 0 min 0 W/m 18,8 km/h (3 Bft)
25.12.2014 07:02 3,6 C 2,2 C 91 % 1021,3 hPa 0,0 l/m 0 min 0 min 0 W/m 25,1 km/h (4 Bft)
25.12.2014 07:04 3,6 C 2,2 C 91 % 1021,2 hPa 0,0 l/m 0 min 0 min 0 W/m 29,3 km/h (5 Bft)
25.12.2014 07:06 3,6 C 2,2 C 91 % 1021,2 hPa 0,0 l/m 0 min 0 min 0 W/m 16,7 km/h (3 Bft)
25.12.2014 07:08 3,6 C 2,2 C 91 % 1021,3 hPa 0,0 l/m 0 min 0 min 0 W/m 20,9 km/h (4 Bft)
25.12.2014 07:10 3,6 C 2,2 C 91 % 1021,3 hPa 0,0 l/m 0 min 0 min 0 W/m 27,2 km/h (4 Bft)
25.12.2014 07:12 3,6 C 2,2 C 91 % 1021,3 hPa 0,0 l/m 0 min 0 min 0 W/m 29,3 km/h (5 Bft)
25.12.2014 07:14 3,6 C 2,2 C 91 % 1021,3 hPa 0,0 l/m 0 min 0 min 0 W/m 27,2 km/h (4 Bft)
25.12.2014 07:16 3,6 C 2,2 C 91 % 1021,4 hPa 0,0 l/m 0 min 0 min 0 W/m 27,2 km/h (4 Bft)
25.12.2014 07:18 3,6 C 2,2 C 91 % 1021,3 hPa 0,0 l/m 0 min 0 min 0 W/m 29,3 km/h (5 Bft)
25.12.2014 07:20 3,6 C 2,2 C 91 % 1021,4 hPa 0,0 l/m 0 min 0 min 0 W/m 23,0 km/h (4 Bft)
25.12.2014 07:22 3,6 C 2,2 C 91 % 1021,4 hPa 0,0 l/m 0 min 0 min 0 W/m 27,2 km/h (4 Bft)
25.12.2014 07:24 3,6 C 2,2 C 91 % 1021,4 hPa 0,0 l/m 0 min 0 min 0 W/m 16,7 km/h (3 Bft)
25.12.2014 07:26 3,6 C 2,2 C 91 % 1021,4 hPa 0,0 l/m 0 min 0 min 0 W/m 18,8 km/h (3 Bft)
25.12.2014 07:28 3,6 C 2,2 C 91 % 1021,4 hPa 0,0 l/m 0 min 0 min 0 W/m 23,0 km/h (4 Bft)
25.12.2014 07:30 3,6 C 2,2 C 91 % 1021,4 hPa 0,0 l/m 0 min 0 min 0 W/m 27,2 km/h (4 Bft)
25.12.2014 07:32 3,6 C 2,2 C 91 % 1021,4 hPa 0,0 l/m 0 min 0 min 0 W/m 29,3 km/h (5 Bft)
25.12.2014 07:34 3,6 C 2,2 C 91 % 1021,4 hPa 0,0 l/m 0 min 0 min 0 W/m 18,8 km/h (3 Bft)
25.12.2014 07:36 3,6 C 2,2 C 91 % 1021,4 hPa 0,0 l/m 0 min 0 min 0 W/m 20,9 km/h (4 Bft)
25.12.2014 07:38 3,6 C 2,2 C 91 % 1021,4 hPa 0,0 l/m 0 min 0 min 0 W/m 25,1 km/h (4 Bft)
25.12.2014 07:40 3,6 C 2,2 C 91 % 1021,5 hPa 0,0 l/m 0 min 0 min 0 W/m 20,9 km/h (4 Bft)
25.12.2014 07:42 3,6 C 2,2 C 91 % 1021,4 hPa 0,0 l/m 0 min 0 min 0 W/m 27,2 km/h (4 Bft)
25.12.2014 07:44 3,6 C 2,2 C 91 % 1021,5 hPa 0,0 l/m 0 min 0 min 0 W/m 27,2 km/h (4 Bft)
25.12.2014 07:46 3,6 C 2,2 C 91 % 1021,5 hPa 0,0 l/m 0 min 0 min 0 W/m 27,2 km/h (4 Bft)
25.12.2014 07:48 3,6 C 2,2 C 91 % 1021,5 hPa 0,0 l/m 0 min 0 min 0 W/m 27,2 km/h (4 Bft)
25.12.2014 07:50 3,6 C 2,2 C 91 % 1021,5 hPa 0,0 l/m 0 min 0 min 0 W/m 20,9 km/h (4 Bft)
25.12.2014 07:52 3,6 C 2,2 C 91 % 1021,6 hPa 0,0 l/m 0 min 0 min 0 W/m 18,8 km/h (3 Bft)
25.12.2014 07:54 3,6 C 2,2 C 91 % 1021,6 hPa 0,0 l/m 0 min 0 min 0 W/m 31,4 km/h (5 Bft)
25.12.2014 07:56 3,6 C 2,2 C 91 % 1021,6 hPa 0,0 l/m 0 min 0 min 0 W/m 23,0 km/h (4 Bft)
25.12.2014 07:58 3,6 C 2,2 C 91 % 1021,6 hPa 0,0 l/m 0 min 0 min 0 W/m 25,1 km/h (4 Bft)
25.12.2014 08:00 3,6 C 2,2 C 91 % 1021,6 hPa 0,0 l/m 0 min 0 min 0 W/m 20,9 km/h (4 Bft)
25.12.2014 08:02 3,6 C 2,2 C 91 % 1021,6 hPa 0,0 l/m 0 min 0 min 0 W/m 23,0 km/h (4 Bft)
25.12.2014 08:04 3,6 C 2,2 C 91 % 1021,6 hPa 0,0 l/m 0 min 0 min 0 W/m 27,2 km/h (4 Bft)
25.12.2014 08:06 3,6 C 2,2 C 91 % 1021,6 hPa 0,0 l/m 0 min 0 min 0 W/m 29,3 km/h (5 Bft)
25.12.2014 08:08 3,6 C 2,2 C 91 % 1021,6 hPa 0,0 l/m 0 min 0 min 0 W/m 23,0 km/h (4 Bft)
25.12.2014 08:10 3,6 C 2,2 C 91 % 1021,7 hPa 0,0 l/m 0 min 0 min 0 W/m 25,1 km/h (4 Bft)
25.12.2014 08:12 3,6 C 2,2 C 91 % 1021,6 hPa 0,0 l/m 0 min 0 min 0 W/m 20,9 km/h (4 Bft)
25.12.2014 08:14 3,6 C 2,2 C 91 % 1021,6 hPa 0,0 l/m 0 min 0 min 0 W/m 16,7 km/h (3 Bft)
25.12.2014 08:16 3,6 C 2,2 C 91 % 1021,6 hPa 0,0 l/m 0 min 0 min 0 W/m 27,2 km/h (4 Bft)
25.12.2014 08:18 3,6 C 2,2 C 91 % 1021,6 hPa 0,0 l/m 0 min 0 min 0 W/m 29,3 km/h (5 Bft)
25.12.2014 08:20 3,6 C 2,2 C 91 % 1021,6 hPa 0,0 l/m 0 min 0 min 0 W/m 29,3 km/h (5 Bft)
25.12.2014 08:22 3,7 C 2,2 C 91 % 1021,6 hPa 0,0 l/m 0 min 0 min 0 W/m 23,0 km/h (4 Bft)
25.12.2014 08:24 3,7 C 2,2 C 92 % 1021,6 hPa 0,0 l/m 0 min 0 min 0 W/m 25,1 km/h (4 Bft)
25.12.2014 08:26 3,7 C 2,8 C 92 % 1021,6 hPa 0,0 l/m 0 min 0 min 0 W/m 33,5 km/h (5 Bft)
25.12.2014 08:28 3,7 C 2,8 C 92 % 1021,6 hPa 0,0 l/m 0 min 0 min 0 W/m 29,3 km/h (5 Bft)
25.12.2014 08:30 3,7 C 2,8 C 92 % 1021,6 hPa 0,0 l/m 0 min 0 min 0 W/m 27,2 km/h (4 Bft)
25.12.2014 08:32 3,7 C 2,8 C 92 % 1021,6 hPa 0,0 l/m 0 min 0 min 0 W/m 23,0 km/h (4 Bft)
25.12.2014 08:34 3,7 C 2,2 C 92 % 1021,6 hPa 0,0 l/m 0 min 0 min 0 W/m 23,0 km/h (4 Bft)
25.12.2014 08:36 3,7 C 2,2 C 92 % 1021,6 hPa 0,0 l/m 0 min 0 min 4 W/m 20,9 km/h (4 Bft)
25.12.2014 08:38 3,7 C 2,2 C 92 % 1021,6 hPa 0,0 l/m 0 min 0 min 5 W/m 29,3 km/h (5 Bft)
25.12.2014 08:40 3,7 C 2,8 C 92 % 1021,6 hPa 0,0 l/m 0 min 0 min 5 W/m 29,3 km/h (5 Bft)
25.12.2014 08:42 3,8 C 2,8 C 92 % 1021,6 hPa 0,0 l/m 0 min 0 min 6 W/m 29,3 km/h (5 Bft)
25.12.2014 08:44 3,8 C 2,8 C 92 % 1021,7 hPa 0,0 l/m 0 min 0 min 7 W/m 27,2 km/h (4 Bft)
25.12.2014 08:46 3,8 C 2,8 C 92 % 1021,6 hPa 0,0 l/m 0 min 0 min 7 W/m 33,5 km/h (5 Bft)
25.12.2014 08:48 3,8 C 2,8 C 92 % 1021,7 hPa 0,0 l/m 0 min 0 min 9 W/m 27,2 km/h (4 Bft)
25.12.2014 08:50 3,8 C 2,8 C 92 % 1021,7 hPa 0,0 l/m 0 min 0 min 9 W/m 25,1 km/h (4 Bft)
25.12.2014 08:52 3,8 C 2,8 C 92 % 1021,7 hPa 0,0 l/m 0 min 0 min 9 W/m 23,0 km/h (4 Bft)
25.12.2014 08:54 3,9 C 2,8 C 92 % 1021,8 hPa 0,0 l/m 0 min 0 min 11 W/m 25,1 km/h (4 Bft)
25.12.2014 08:56 3,8 C 2,8 C 92 % 1021,9 hPa 0,0 l/m 0 min 0 min 12 W/m 18,8 km/h (3 Bft)
25.12.2014 08:58 3,8 C 2,8 C 92 % 1021,9 hPa 0,0 l/m 0 min 0 min 14 W/m 25,1 km/h (4 Bft)
25.12.2014 09:00 3,8 C 2,8 C 92 % 1022,0 hPa 0,0 l/m 2 min 0 min 18 W/m 20,9 km/h (4 Bft)
25.12.2014 09:02 3,8 C 2,8 C 92 % 1022,0 hPa 0,0 l/m 2 min 0 min 20 W/m 25,1 km/h (4 Bft)
25.12.2014 09:04 3,8 C 2,8 C 92 % 1022,0 hPa 0,0 l/m 2 min 0 min 25 W/m 25,1 km/h (4 Bft)
25.12.2014 09:06 3,9 C 2,8 C 92 % 1022,1 hPa 0,0 l/m 2 min 0 min 29 W/m 25,1 km/h (4 Bft)
25.12.2014 09:08 3,9 C 2,8 C 92 % 1022,1 hPa 0,0 l/m 2 min 0 min 28 W/m 23,0 km/h (4 Bft)
25.12.2014 09:10 3,9 C 2,8 C 92 % 1022,1 hPa 0,0 l/m 2 min 0 min 29 W/m 29,3 km/h (5 Bft)
25.12.2014 09:12 3,9 C 2,8 C 92 % 1022,1 hPa 0,0 l/m 2 min 0 min 29 W/m 25,1 km/h (4 Bft)
25.12.2014 09:14 3,9 C 3,3 C 92 % 1022,1 hPa 0,0 l/m 0 min 0 min 30 W/m 29,3 km/h (5 Bft)
25.12.2014 09:16 4,0 C 3,3 C 92 % 1022,1 hPa 0,0 l/m 2 min 0 min 33 W/m 27,2 km/h (4 Bft)
25.12.2014 09:18 4,0 C 3,3 C 92 % 1022,2 hPa 0,0 l/m 0 min 0 min 32 W/m 29,3 km/h (5 Bft)
25.12.2014 09:20 4,1 C 3,3 C 92 % 1022,1 hPa 0,0 l/m 0 min 0 min 30 W/m 29,3 km/h (5 Bft)
25.12.2014 09:22 4,1 C 3,3 C 92 % 1022,2 hPa 0,0 l/m 0 min 0 min 32 W/m 25,1 km/h (4 Bft)
25.12.2014 09:24 4,1 C 3,3 C 92 % 1022,2 hPa 0,0 l/m 0 min 0 min 34 W/m 18,8 km/h (3 Bft)
25.12.2014 09:26 4,1 C 3,3 C 92 % 1022,2 hPa 0,0 l/m 0 min 0 min 38 W/m 37,7 km/h (5 Bft)
25.12.2014 09:28 4,1 C 3,3 C 92 % 1022,2 hPa 0,0 l/m 0 min 0 min 37 W/m 27,2 km/h (4 Bft)
25.12.2014 09:30 4,1 C 3,3 C 92 % 1022,2 hPa 0,0 l/m 0 min 0 min 32 W/m 27,2 km/h (4 Bft)
25.12.2014 09:32 4,1 C 3,3 C 92 % 1022,2 hPa 0,0 l/m 0 min 0 min 32 W/m 23,0 km/h (4 Bft)
25.12.2014 09:34 4,1 C 3,3 C 92 % 1022,2 hPa 0,0 l/m 0 min 0 min 33 W/m 33,5 km/h (5 Bft)
25.12.2014 09:36 4,2 C 3,3 C 92 % 1022,3 hPa 0,0 l/m 0 min 0 min 38 W/m 25,1 km/h (4 Bft)
25.12.2014 09:38 4,2 C 3,3 C 92 % 1022,3 hPa 0,0 l/m 0 min 0 min 44 W/m 23,0 km/h (4 Bft)
25.12.2014 09:40 4,2 C 3,3 C 92 % 1022,3 hPa 0,0 l/m 0 min 0 min 47 W/m 31,4 km/h (5 Bft)
25.12.2014 09:42 4,2 C 3,3 C 92 % 1022,4 hPa 0,0 l/m 0 min 0 min 44 W/m 27,2 km/h (4 Bft)
25.12.2014 09:44 4,2 C 3,3 C 92 % 1022,3 hPa 0,0 l/m 0 min 0 min 48 W/m 33,5 km/h (5 Bft)
25.12.2014 09:46 4,2 C 3,3 C 92 % 1022,3 hPa 0,0 l/m 0 min 0 min 53 W/m 20,9 km/h (4 Bft)
25.12.2014 09:48 4,3 C 3,3 C 92 % 1022,4 hPa 0,0 l/m 0 min 0 min 58 W/m 27,2 km/h (4 Bft)
25.12.2014 09:50 4,3 C 3,3 C 92 % 1022,4 hPa 0,0 l/m 0 min 0 min 54 W/m 18,8 km/h (3 Bft)
25.12.2014 09:52 4,3 C 3,3 C 92 % 1022,5 hPa 0,0 l/m 0 min 0 min 49 W/m 23,0 km/h (4 Bft)
25.12.2014 09:54 4,3 C 3,3 C 92 % 1022,5 hPa 0,0 l/m 0 min 0 min 47 W/m 16,7 km/h (3 Bft)
25.12.2014 09:56 4,4 C 3,3 C 92 % 1022,5 hPa 0,0 l/m 0 min 0 min 45 W/m 25,1 km/h (4 Bft)
25.12.2014 09:58 4,4 C 3,3 C 92 % 1022,5 hPa 0,0 l/m 0 min 0 min 37 W/m 27,2 km/h (4 Bft)
25.12.2014 10:00 4,4 C 3,3 C 92 % 1022,6 hPa 0,0 l/m 0 min 0 min 37 W/m 18,8 km/h (3 Bft)
25.12.2014 10:02 4,4 C 3,9 C 92 % 1022,5 hPa 0,0 l/m 0 min 0 min 42 W/m 20,9 km/h (4 Bft)
25.12.2014 10:04 4,4 C 3,9 C 92 % 1022,6 hPa 0,0 l/m 0 min 0 min 49 W/m 27,2 km/h (4 Bft)
25.12.2014 10:06 4,5 C 3,9 C 92 % 1022,6 hPa 0,0 l/m 0 min 0 min 38 W/m 29,3 km/h (5 Bft)
25.12.2014 10:08 4,5 C 3,9 C 92 % 1022,5 hPa 0,0 l/m 0 min 0 min 40 W/m 25,1 km/h (4 Bft)
25.12.2014 10:10 4,6 C 3,9 C 92 % 1022,6 hPa 0,0 l/m 0 min 0 min 50 W/m 27,2 km/h (4 Bft)
25.12.2014 10:12 4,6 C 3,9 C 92 % 1022,7 hPa 0,0 l/m 0 min 0 min 50 W/m 20,9 km/h (4 Bft)
25.12.2014 10:14 4,6 C 3,9 C 92 % 1022,6 hPa 0,0 l/m 0 min 0 min 48 W/m 23,0 km/h (4 Bft)
25.12.2014 10:16 4,6 C 3,9 C 92 % 1022,7 hPa 0,0 l/m 0 min 0 min 43 W/m 29,3 km/h (5 Bft)
25.12.2014 10:18 4,6 C 3,9 C 92 % 1022,7 hPa 0,0 l/m 0 min 0 min 44 W/m 29,3 km/h (5 Bft)
25.12.2014 10:20 4,7 C 3,9 C 92 % 1022,7 hPa 0,0 l/m 0 min 0 min 48 W/m 25,1 km/h (4 Bft)
25.12.2014 10:22 4,7 C 3,9 C 92 % 1022,8 hPa 0,0 l/m 0 min 0 min 46 W/m 27,2 km/h (4 Bft)
25.12.2014 10:24 4,7 C 3,9 C 92 % 1022,9 hPa 0,0 l/m 0 min 0 min 46 W/m 25,1 km/h (4 Bft)
25.12.2014 10:26 4,7 C 3,9 C 92 % 1022,9 hPa 0,0 l/m 0 min 0 min 46 W/m 29,3 km/h (5 Bft)
25.12.2014 10:28 4,7 C 3,9 C 92 % 1022,9 hPa 0,0 l/m 0 min 0 min 39 W/m 27,2 km/h (4 Bft)
25.12.2014 10:30 4,7 C 3,9 C 92 % 1022,9 hPa 0,0 l/m 0 min 0 min 35 W/m 31,4 km/h (5 Bft)
25.12.2014 10:32 4,8 C 3,9 C 91 % 1022,9 hPa 0,0 l/m 0 min 0 min 42 W/m 31,4 km/h (5 Bft)
25.12.2014 10:34 4,8 C 3,9 C 91 % 1022,9 hPa 0,0 l/m 0 min 0 min 51 W/m 25,1 km/h (4 Bft)
25.12.2014 10:36 4,8 C 3,9 C 91 % 1023,0 hPa 0,0 l/m 0 min 0 min 61 W/m 27,2 km/h (4 Bft)
25.12.2014 10:38 4,8 C 3,9 C 91 % 1023,0 hPa 0,0 l/m 0 min 0 min 61 W/m 29,3 km/h (5 Bft)
25.12.2014 10:40 4,8 C 3,9 C 91 % 1023,0 hPa 0,0 l/m 0 min 0 min 54 W/m 20,9 km/h (4 Bft)
25.12.2014 10:42 4,9 C 3,9 C 92 % 1023,1 hPa 0,0 l/m 0 min 0 min 60 W/m 25,1 km/h (4 Bft)
25.12.2014 10:44 4,9 C 4,4 C 91 % 1023,1 hPa 0,0 l/m 0 min 0 min 66 W/m 33,5 km/h (5 Bft)
25.12.2014 10:46 4,9 C 4,4 C 91 % 1023,2 hPa 0,0 l/m 0 min 0 min 55 W/m 27,2 km/h (4 Bft)
25.12.2014 10:48 4,9 C 4,4 C 91 % 1023,3 hPa 0,0 l/m 0 min 0 min 49 W/m 23,0 km/h (4 Bft)
25.12.2014 10:50 5,0 C 4,4 C 91 % 1023,3 hPa 0,0 l/m 0 min 0 min 54 W/m 23,0 km/h (4 Bft)
25.12.2014 10:52 5,0 C 4,4 C 91 % 1023,3 hPa 0,0 l/m 0 min 0 min 55 W/m 23,0 km/h (4 Bft)
25.12.2014 10:54 5,0 C 4,4 C 91 % 1023,3 hPa 0,0 l/m 0 min 0 min 60 W/m 33,5 km/h (5 Bft)
25.12.2014 10:56 5,1 C 4,4 C 91 % 1023,2 hPa 0,0 l/m 0 min 0 min 69 W/m 27,2 km/h (4 Bft)
25.12.2014 10:58 5,1 C 4,4 C 91 % 1023,2 hPa 0,0 l/m 0 min 0 min 64 W/m 29,3 km/h (5 Bft)
25.12.2014 11:00 5,1 C 4,4 C 91 % 1023,3 hPa 0,0 l/m 0 min 0 min 70 W/m 31,4 km/h (5 Bft)
25.12.2014 11:02 5,2 C 4,4 C 91 % 1023,3 hPa 0,0 l/m 0 min 0 min 77 W/m 23,0 km/h (4 Bft)
25.12.2014 11:04 5,2 C 4,4 C 91 % 1023,3 hPa 0,0 l/m 0 min 0 min 73 W/m 20,9 km/h (4 Bft)
25.12.2014 11:06 5,2 C 4,4 C 91 % 1023,3 hPa 0,0 l/m 0 min 0 min 77 W/m 23,0 km/h (4 Bft)
25.12.2014 11:08 5,2 C 4,4 C 91 % 1023,3 hPa 0,0 l/m 0 min 0 min 72 W/m 25,1 km/h (4 Bft)
25.12.2014 11:10 5,2 C 4,4 C 91 % 1023,3 hPa 0,0 l/m 0 min 0 min 97 W/m 27,2 km/h (4 Bft)
25.12.2014 11:12 5,3 C 4,4 C 91 % 1023,3 hPa 0,0 l/m 2 min 0 min 126 W/m 25,1 km/h (4 Bft)
25.12.2014 11:14 5,3 C 4,4 C 91 % 1023,4 hPa 0,0 l/m 2 min 0 min 129 W/m 31,4 km/h (5 Bft)
25.12.2014 11:16 5,3 C 4,4 C 91 % 1023,3 hPa 0,0 l/m 2 min 0 min 138 W/m 33,5 km/h (5 Bft)
25.12.2014 11:18 5,3 C 4,4 C 91 % 1023,4 hPa 0,0 l/m 2 min 0 min 176 W/m 27,2 km/h (4 Bft)
25.12.2014 11:20 5,4 C 5,0 C 91 % 1023,3 hPa 0,0 l/m 2 min 0 min 167 W/m 20,9 km/h (4 Bft)
25.12.2014 11:22 5,4 C 5,0 C 91 % 1023,3 hPa 0,0 l/m 2 min 0 min 165 W/m 23,0 km/h (4 Bft)
25.12.2014 11:24 5,4 C 5,0 C 91 % 1023,2 hPa 0,0 l/m 2 min 0 min 202 W/m 27,2 km/h (4 Bft)
25.12.2014 11:26 5,5 C 5,0 C 91 % 1023,2 hPa 0,0 l/m 2 min 0 min 270 W/m 29,3 km/h (5 Bft)
25.12.2014 11:28 5,6 C 5,0 C 91 % 1023,2 hPa 0,0 l/m 2 min 0 min 243 W/m 27,2 km/h (4 Bft)
25.12.2014 11:30 5,7 C 5,0 C 90 % 1023,2 hPa 0,0 l/m 2 min 0 min 243 W/m 23,0 km/h (4 Bft)
25.12.2014 11:32 5,7 C 5,0 C 91 % 1023,3 hPa 0,0 l/m 2 min 0 min 235 W/m 27,2 km/h (4 Bft)
25.12.2014 11:34 5,7 C 5,0 C 90 % 1023,3 hPa 0,0 l/m 2 min 0 min 196 W/m 29,3 km/h (5 Bft)
25.12.2014 11:36 5,8 C 4,4 C 90 % 1023,3 hPa 0,0 l/m 0 min 0 min 115 W/m 23,0 km/h (4 Bft)
25.12.2014 11:38 5,8 C 4,4 C 90 % 1023,2 hPa 0,0 l/m 2 min 0 min 160 W/m 35,6 km/h (5 Bft)
25.12.2014 11:40 5,8 C 4,4 C 90 % 1023,3 hPa 0,0 l/m 2 min 0 min 157 W/m 27,2 km/h (4 Bft)
25.12.2014 11:42 5,8 C 4,4 C 90 % 1023,1 hPa 0,0 l/m 0 min 0 min 70 W/m 23,0 km/h (4 Bft)
25.12.2014 11:44 5,7 C 4,4 C 89 % 1023,1 hPa 0,0 l/m 0 min 0 min 57 W/m 27,2 km/h (4 Bft)
25.12.2014 11:46 5,7 C 4,4 C 89 % 1023,2 hPa 0,0 l/m 0 min 0 min 58 W/m 37,7 km/h (5 Bft)
25.12.2014 11:48 5,7 C 4,4 C 89 % 1023,1 hPa 0,0 l/m 0 min 0 min 74 W/m 29,3 km/h (5 Bft)
25.12.2014 11:50 5,7 C 4,4 C 89 % 1023,1 hPa 0,0 l/m 0 min 0 min 76 W/m 20,9 km/h (4 Bft)
25.12.2014 11:52 5,6 C 4,4 C 89 % 1023,1 hPa 0,0 l/m 0 min 0 min 106 W/m 20,9 km/h (4 Bft)
25.12.2014 11:54 5,6 C 4,4 C 89 % 1023,1 hPa 0,0 l/m 2 min 0 min 247 W/m 20,9 km/h (4 Bft)
25.12.2014 11:56 5,7 C 5,0 C 89 % 1023,2 hPa 0,0 l/m 2 min 0 min 206 W/m 33,5 km/h (5 Bft)
25.12.2014 11:58 5,7 C 5,0 C 89 % 1023,2 hPa 0,0 l/m 2 min 0 min 135 W/m 25,1 km/h (4 Bft)
25.12.2014 12:00 5,7 C 5,0 C 89 % 1023,2 hPa 0,0 l/m 0 min 0 min 111 W/m 31,4 km/h (5 Bft)
25.12.2014 12:02 5,8 C 5,0 C 89 % 1023,3 hPa 0,0 l/m 2 min 0 min 154 W/m 31,4 km/h (5 Bft)
25.12.2014 12:05 5,8 C 5,0 C 89 % 1023,2 hPa 0,0 l/m 2 min 0 min 271 W/m 23,0 km/h (4 Bft)
25.12.2014 12:08 5,9 C 5,0 C 89 % 1023,3 hPa 0,0 l/m 2 min 0 min 205 W/m 39,7 km/h (6 Bft)
25.12.2014 12:10 5,9 C 5,0 C 89 % 1023,3 hPa 0,0 l/m 2 min 0 min 154 W/m 27,2 km/h (4 Bft)
25.12.2014 12:12 5,9 C 5,0 C 90 % 1023,2 hPa 0,0 l/m 0 min 0 min 130 W/m 31,4 km/h (5 Bft)
25.12.2014 12:14 5,9 C 5,0 C 90 % 1023,2 hPa 0,0 l/m 2 min 0 min 183 W/m 29,3 km/h (5 Bft)
25.12.2014 12:16 5,9 C 5,0 C 90 % 1023,3 hPa 0,0 l/m 2 min 0 min 208 W/m 31,4 km/h (5 Bft)
25.12.2014 12:18 6,0 C 5,0 C 90 % 1023,2 hPa 0,0 l/m 2 min 0 min 169 W/m 23,0 km/h (4 Bft)
25.12.2014 12:20 6,0 C 5,0 C 89 % 1023,3 hPa 0,0 l/m 2 min 0 min 167 W/m 23,0 km/h (4 Bft)
25.12.2014 12:22 6,1 C 5,6 C 89 % 1023,4 hPa 0,0 l/m 2 min 0 min 160 W/m 25,1 km/h (4 Bft)
25.12.2014 12:24 6,1 C 5,6 C 90 % 1023,3 hPa 0,0 l/m 2 min 0 min 138 W/m 29,3 km/h (5 Bft)
25.12.2014 12:26 6,1 C 5,6 C 89 % 1023,2 hPa 0,0 l/m 2 min 0 min 137 W/m 35,6 km/h (5 Bft)
25.12.2014 12:28 6,1 C 5,6 C 89 % 1023,3 hPa 0,0 l/m 2 min 0 min 139 W/m 33,5 km/h (5 Bft)
25.12.2014 12:30 6,1 C 5,6 C 89 % 1023,3 hPa 0,0 l/m 2 min 0 min 148 W/m 33,5 km/h (5 Bft)
25.12.2014 12:32 6,1 C 5,6 C 89 % 1023,3 hPa 0,0 l/m 2 min 0 min 200 W/m 25,1 km/h (4 Bft)
25.12.2014 12:34 6,2 C 5,6 C 89 % 1023,3 hPa 0,0 l/m 2 min 0 min 160 W/m 27,2 km/h (4 Bft)
25.12.2014 12:36 6,2 C 5,6 C 89 % 1023,3 hPa 0,0 l/m 2 min 0 min 158 W/m 18,8 km/h (3 Bft)
25.12.2014 12:38 6,2 C 5,6 C 89 % 1023,2 hPa 0,0 l/m 2 min 0 min 153 W/m 29,3 km/h (5 Bft)
25.12.2014 12:40 6,3 C 5,6 C 89 % 1023,2 hPa 0,0 l/m 2 min 0 min 148 W/m 25,1 km/h (4 Bft)
25.12.2014 12:42 6,3 C 5,6 C 89 % 1023,2 hPa 0,0 l/m 2 min 0 min 139 W/m 29,3 km/h (5 Bft)
25.12.2014 12:44 6,3 C 5,6 C 89 % 1023,1 hPa 0,0 l/m 0 min 0 min 127 W/m 23,0 km/h (4 Bft)
25.12.2014 12:46 6,3 C 5,6 C 89 % 1023,1 hPa 0,0 l/m 0 min 0 min 125 W/m 35,6 km/h (5 Bft)
25.12.2014 12:48 6,4 C 5,6 C 89 % 1023,2 hPa 0,0 l/m 2 min 0 min 135 W/m 29,3 km/h (5 Bft)
25.12.2014 12:50 6,4 C 5,6 C 89 % 1023,1 hPa 0,0 l/m 2 min 0 min 140 W/m 33,5 km/h (5 Bft)
25.12.2014 12:52 6,4 C 5,6 C 89 % 1023,0 hPa 0,0 l/m 2 min 0 min 160 W/m 23,0 km/h (4 Bft)
25.12.2014 12:54 6,4 C 6,1 C 89 % 1023,0 hPa 0,0 l/m 2 min 0 min 197 W/m 25,1 km/h (4 Bft)
25.12.2014 12:56 6,4 C 6,1 C 89 % 1023,0 hPa 0,0 l/m 2 min 0 min 222 W/m 20,9 km/h (4 Bft)
25.12.2014 12:58 6,5 C 6,1 C 89 % 1023,0 hPa 0,0 l/m 2 min 0 min 208 W/m 25,1 km/h (4 Bft)
25.12.2014 13:00 6,6 C 6,1 C 89 % 1023,0 hPa 0,0 l/m 2 min 0 min 180 W/m 23,0 km/h (4 Bft)
25.12.2014 13:02 6,6 C 6,1 C 89 % 1023,1 hPa 0,0 l/m 2 min 0 min 157 W/m 29,3 km/h (5 Bft)
25.12.2014 13:04 6,6 C 6,1 C 89 % 1023,0 hPa 0,0 l/m 0 min 0 min 125 W/m 33,5 km/h (5 Bft)
25.12.2014 13:06 6,6 C 6,1 C 89 % 1023,1 hPa 0,0 l/m 0 min 0 min 104 W/m 18,8 km/h (3 Bft)
25.12.2014 13:08 6,7 C 5,6 C 89 % 1023,4 hPa 0,0 l/m 0 min 0 min 58 W/m 20,9 km/h (4 Bft)
25.12.2014 13:10 6,7 C 5,6 C 89 % 1023,5 hPa 0,0 l/m 0 min 0 min 38 W/m 31,4 km/h (5 Bft)
25.12.2014 13:12 6,5 C 5,0 C 88 % 1023,5 hPa 0,0 l/m 0 min 0 min 21 W/m 35,6 km/h (5 Bft)
25.12.2014 13:14 6,3 C 3,9 C 87 % 1023,6 hPa 0,0 l/m 0 min 2 min 21 W/m 25,1 km/h (4 Bft)
25.12.2014 13:16 6,1 C 2,8 C 86 % 1023,7 hPa 0,2 l/m 0 min 2 min 21 W/m 31,4 km/h (5 Bft)
25.12.2014 13:18 5,8 C 1,7 C 86 % 1023,6 hPa 0,6 l/m 0 min 2 min 19 W/m 37,7 km/h (5 Bft)
25.12.2014 13:20 5,5 C 1,7 C 86 % 1023,7 hPa 0,4 l/m 0 min 2 min 13 W/m 35,6 km/h (5 Bft)
25.12.2014 13:22 5,3 C 1,7 C 86 % 1023,7 hPa 0,4 l/m 0 min 2 min 9 W/m 35,6 km/h (5 Bft)
25.12.2014 13:24 5,0 C 1,7 C 86 % 1023,7 hPa 0,4 l/m 0 min 2 min 6 W/m 31,4 km/h (5 Bft)
25.12.2014 13:26 4,7 C 1,7 C 86 % 1023,7 hPa 0,4 l/m 0 min 2 min 5 W/m 29,3 km/h (5 Bft)
25.12.2014 13:28 4,6 C 1,7 C 87 % 1023,7 hPa 0,4 l/m 0 min 2 min 5 W/m 27,2 km/h (4 Bft)
25.12.2014 13:30 4,4 C 2,2 C 88 % 1023,6 hPa 0,2 l/m 0 min 0 min 5 W/m 29,3 km/h (5 Bft)
25.12.2014 13:32 4,3 C 2,2 C 88 % 1023,6 hPa 0,2 l/m 0 min 2 min 7 W/m 23,0 km/h (4 Bft)
25.12.2014 13:34 4,2 C 2,2 C 89 % 1023,6 hPa 0,0 l/m 0 min 0 min 13 W/m 25,1 km/h (4 Bft)
25.12.2014 13:36 4,2 C 2,2 C 89 % 1023,5 hPa 0,0 l/m 0 min 0 min 23 W/m 20,9 km/h (4 Bft)
25.12.2014 13:38 4,1 C 2,2 C 90 % 1023,5 hPa 0,2 l/m 0 min 0 min 34 W/m 14,6 km/h (3 Bft)
25.12.2014 13:40 4,1 C 2,2 C 90 % 1023,5 hPa 0,0 l/m 0 min 0 min 38 W/m 14,6 km/h (3 Bft)
25.12.2014 13:42 4,1 C 2,2 C 91 % 1023,5 hPa 0,0 l/m 0 min 0 min 32 W/m 23,0 km/h (4 Bft)
25.12.2014 13:44 4,1 C 2,2 C 91 % 1023,5 hPa 0,0 l/m 0 min 0 min 32 W/m 12,6 km/h (3 Bft)
25.12.2014 13:46 4,1 C 2,8 C 91 % 1023,5 hPa 0,0 l/m 0 min 0 min 33 W/m 10,5 km/h (2 Bft)
25.12.2014 13:48 4,1 C 2,8 C 92 % 1023,5 hPa 0,0 l/m 0 min 0 min 36 W/m 14,6 km/h (3 Bft)
25.12.2014 13:50 4,1 C 2,8 C 92 % 1023,5 hPa 0,0 l/m 0 min 0 min 44 W/m 14,6 km/h (3 Bft)
25.12.2014 13:52 4,1 C 2,8 C 92 % 1023,5 hPa 0,0 l/m 0 min 0 min 47 W/m 16,7 km/h (3 Bft)
25.12.2014 13:54 4,1 C 2,8 C 92 % 1023,5 hPa 0,0 l/m 0 min 0 min 50 W/m 20,9 km/h (4 Bft)
25.12.2014 13:56 4,1 C 2,8 C 93 % 1023,5 hPa 0,0 l/m 0 min 0 min 54 W/m 20,9 km/h (4 Bft)
25.12.2014 13:58 4,1 C 2,8 C 93 % 1023,5 hPa 0,0 l/m 0 min 0 min 55 W/m 18,8 km/h (3 Bft)
25.12.2014 14:00 4,1 C 2,8 C 93 % 1023,5 hPa 0,0 l/m 0 min 0 min 57 W/m 18,8 km/h (3 Bft)
25.12.2014 14:02 4,1 C 2,8 C 93 % 1023,5 hPa 0,0 l/m 0 min 0 min 62 W/m 18,8 km/h (3 Bft)
25.12.2014 14:04 4,2 C 2,8 C 93 % 1023,5 hPa 0,0 l/m 0 min 0 min 67 W/m 16,7 km/h (3 Bft)
25.12.2014 14:06 4,2 C 2,8 C 93 % 1023,5 hPa 0,0 l/m 0 min 0 min 60 W/m 20,9 km/h (4 Bft)
25.12.2014 14:08 4,2 C 2,8 C 93 % 1023,6 hPa 0,0 l/m 0 min 0 min 46 W/m 16,7 km/h (3 Bft)
25.12.2014 14:10 4,2 C 2,8 C 93 % 1023,5 hPa 0,0 l/m 0 min 0 min 36 W/m 18,8 km/h (3 Bft)
25.12.2014 14:12 4,2 C 2,8 C 94 % 1023,5 hPa 0,0 l/m 0 min 0 min 38 W/m 18,8 km/h (3 Bft)
25.12.2014 14:14 4,2 C 2,8 C 94 % 1023,5 hPa 0,0 l/m 0 min 0 min 40 W/m 14,6 km/h (3 Bft)
25.12.2014 14:16 4,2 C 2,8 C 94 % 1023,5 hPa 0,0 l/m 0 min 0 min 40 W/m 12,6 km/h (3 Bft)
25.12.2014 14:18 4,3 C 2,8 C 94 % 1023,5 hPa 0,0 l/m 0 min 0 min 40 W/m 20,9 km/h (4 Bft)
25.12.2014 14:20 4,3 C 2,8 C 94 % 1023,5 hPa 0,0 l/m 0 min 0 min 43 W/m 16,7 km/h (3 Bft)
25.12.2014 14:22 4,3 C 2,8 C 94 % 1023,5 hPa 0,0 l/m 0 min 0 min 49 W/m 10,5 km/h (2 Bft)
25.12.2014 14:24 4,3 C 2,8 C 94 % 1023,6 hPa 0,0 l/m 0 min 0 min 66 W/m 20,9 km/h (4 Bft)
25.12.2014 14:26 4,3 C 3,3 C 94 % 1023,5 hPa 0,0 l/m 0 min 0 min 93 W/m 16,7 km/h (3 Bft)
25.12.2014 14:28 4,3 C 3,3 C 94 % 1023,6 hPa 0,0 l/m 0 min 0 min 97 W/m 12,6 km/h (3 Bft)
25.12.2014 14:30 4,3 C 3,3 C 94 % 1023,6 hPa 0,0 l/m 0 min 0 min 93 W/m 14,6 km/h (3 Bft)
25.12.2014 14:32 4,4 C 3,3 C 94 % 1023,6 hPa 0,0 l/m 0 min 0 min 92 W/m 12,6 km/h (3 Bft)
25.12.2014 14:34 4,4 C 3,9 C 94 % 1023,6 hPa 0,0 l/m 0 min 0 min 91 W/m 14,6 km/h (3 Bft)
25.12.2014 14:36 4,5 C 3,9 C 94 % 1023,6 hPa 0,0 l/m 0 min 0 min 94 W/m 12,6 km/h (3 Bft)
25.12.2014 14:38 4,5 C 3,9 C 95 % 1023,6 hPa 0,0 l/m 0 min 0 min 79 W/m 18,8 km/h (3 Bft)
25.12.2014 14:40 4,6 C 3,9 C 95 % 1023,6 hPa 0,0 l/m 0 min 0 min 74 W/m 16,7 km/h (3 Bft)
25.12.2014 14:42 4,6 C 3,9 C 95 % 1023,6 hPa 0,0 l/m 0 min 0 min 65 W/m 20,9 km/h (4 Bft)
25.12.2014 14:44 4,7 C 3,9 C 95 % 1023,6 hPa 0,0 l/m 0 min 0 min 61 W/m 16,7 km/h (3 Bft)
25.12.2014 14:46 4,7 C 3,9 C 95 % 1023,6 hPa 0,0 l/m 0 min 0 min 72 W/m 14,6 km/h (3 Bft)
25.12.2014 14:48 4,7 C 3,9 C 95 % 1023,7 hPa 0,0 l/m 0 min 0 min 72 W/m 27,2 km/h (4 Bft)
25.12.2014 14:50 4,7 C 3,9 C 95 % 1023,7 hPa 0,0 l/m 0 min 0 min 74 W/m 12,6 km/h (3 Bft)
25.12.2014 14:52 4,8 C 3,9 C 95 % 1023,7 hPa 0,0 l/m 0 min 0 min 79 W/m 14,6 km/h (3 Bft)
25.12.2014 14:54 4,8 C 3,9 C 95 % 1023,6 hPa 0,0 l/m 0 min 0 min 79 W/m 18,8 km/h (3 Bft)
25.12.2014 14:56 4,8 C 3,9 C 95 % 1023,7 hPa 0,0 l/m 0 min 0 min 67 W/m 23,0 km/h (4 Bft)
25.12.2014 14:58 4,8 C 3,9 C 95 % 1023,7 hPa 0,0 l/m 0 min 0 min 61 W/m 14,6 km/h (3 Bft)
25.12.2014 15:00 4,9 C 3,9 C 95 % 1023,7 hPa 0,0 l/m 0 min 0 min 55 W/m 16,7 km/h (3 Bft)
25.12.2014 15:02 4,9 C 3,9 C 95 % 1023,7 hPa 0,0 l/m 0 min 0 min 52 W/m 16,7 km/h (3 Bft)
25.12.2014 15:04 4,9 C 3,9 C 95 % 1023,6 hPa 0,0 l/m 0 min 0 min 52 W/m 16,7 km/h (3 Bft)
25.12.2014 15:06 4,9 C 3,9 C 95 % 1023,7 hPa 0,0 l/m 0 min 0 min 60 W/m 12,6 km/h (3 Bft)
25.12.2014 15:08 4,9 C 3,9 C 95 % 1023,7 hPa 0,0 l/m 0 min 0 min 69 W/m 16,7 km/h (3 Bft)
25.12.2014 15:10 4,9 C 3,9 C 95 % 1023,9 hPa 0,0 l/m 0 min 0 min 69 W/m 12,6 km/h (3 Bft)
25.12.2014 15:12 4,9 C 3,9 C 95 % 1023,9 hPa 0,0 l/m 2 min 0 min 69 W/m 12,6 km/h (3 Bft)
25.12.2014 15:14 4,9 C 3,9 C 95 % 1023,8 hPa 0,0 l/m 2 min 0 min 67 W/m 20,9 km/h (4 Bft)
25.12.2014 15:16 4,9 C 3,9 C 95 % 1023,7 hPa 0,0 l/m 0 min 0 min 49 W/m 12,6 km/h (3 Bft)
25.12.2014 15:18 4,9 C 3,9 C 95 % 1023,7 hPa 0,0 l/m 0 min 0 min 42 W/m 12,6 km/h (3 Bft)
25.12.2014 15:20 4,9 C 3,9 C 95 % 1023,8 hPa 0,0 l/m 0 min 0 min 46 W/m 20,9 km/h (4 Bft)
25.12.2014 15:22 4,9 C 3,3 C 95 % 1023,7 hPa 0,0 l/m 0 min 0 min 52 W/m 12,6 km/h (3 Bft)
25.12.2014 15:24 4,9 C 3,3 C 95 % 1023,7 hPa 0,0 l/m 0 min 0 min 41 W/m 12,6 km/h (3 Bft)
25.12.2014 15:26 4,9 C 3,3 C 95 % 1023,7 hPa 0,0 l/m 0 min 0 min 38 W/m 20,9 km/h (4 Bft)
25.12.2014 15:28 4,9 C 3,3 C 95 % 1023,8 hPa 0,0 l/m 0 min 0 min 43 W/m 20,9 km/h (4 Bft)
25.12.2014 15:30 4,9 C 3,3 C 95 % 1023,9 hPa 0,0 l/m 0 min 0 min 40 W/m 23,0 km/h (4 Bft)
25.12.2014 15:32 4,8 C 3,3 C 95 % 1023,9 hPa 0,0 l/m 0 min 0 min 34 W/m 14,6 km/h (3 Bft)
25.12.2014 15:34 4,8 C 3,3 C 95 % 1023,9 hPa 0,0 l/m 0 min 0 min 31 W/m 12,6 km/h (3 Bft)
25.12.2014 15:36 4,8 C 3,3 C 95 % 1023,9 hPa 0,0 l/m 0 min 0 min 29 W/m 14,6 km/h (3 Bft)
25.12.2014 15:38 4,8 C 3,3 C 95 % 1024,0 hPa 0,0 l/m 0 min 0 min 30 W/m 16,7 km/h (3 Bft)
25.12.2014 15:40 4,8 C 3,3 C 95 % 1024,0 hPa 0,0 l/m 0 min 0 min 33 W/m 14,6 km/h (3 Bft)
25.12.2014 15:42 4,7 C 3,3 C 95 % 1024,0 hPa 0,0 l/m 0 min 0 min 40 W/m 18,8 km/h (3 Bft)
25.12.2014 15:44 4,7 C 3,3 C 95 % 1024,0 hPa 0,0 l/m 2 min 0 min 49 W/m 16,7 km/h (3 Bft)
25.12.2014 15:46 4,7 C 3,3 C 95 % 1024,0 hPa 0,0 l/m 2 min 0 min 56 W/m 14,6 km/h (3 Bft)
25.12.2014 15:48 4,7 C 3,3 C 95 % 1024,1 hPa 0,0 l/m 2 min 0 min 50 W/m 18,8 km/h (3 Bft)
25.12.2014 15:50 4,8 C 3,3 C 95 % 1024,1 hPa 0,0 l/m 2 min 0 min 39 W/m 16,7 km/h (3 Bft)
25.12.2014 15:52 4,8 C 3,3 C 95 % 1024,1 hPa 0,0 l/m 0 min 0 min 31 W/m 16,7 km/h (3 Bft)
25.12.2014 15:54 4,8 C 3,3 C 95 % 1024,1 hPa 0,0 l/m 0 min 0 min 27 W/m 18,8 km/h (3 Bft)
25.12.2014 15:56 4,8 C 3,3 C 95 % 1024,2 hPa 0,0 l/m 0 min 0 min 25 W/m 20,9 km/h (4 Bft)
25.12.2014 15:58 4,8 C 3,3 C 95 % 1024,2 hPa 0,0 l/m 0 min 0 min 23 W/m 18,8 km/h (3 Bft)
25.12.2014 16:00 4,8 C 3,3 C 95 % 1024,2 hPa 0,0 l/m 0 min 0 min 19 W/m 20,9 km/h (4 Bft)
25.12.2014 16:02 4,8 C 3,3 C 95 % 1024,2 hPa 0,0 l/m 0 min 0 min 15 W/m 14,6 km/h (3 Bft)
25.12.2014 16:04 4,9 C 3,3 C 95 % 1024,2 hPa 0,0 l/m 0 min 0 min 12 W/m 18,8 km/h (3 Bft)
25.12.2014 16:06 4,9 C 3,3 C 95 % 1024,2 hPa 0,0 l/m 0 min 0 min 12 W/m 18,8 km/h (3 Bft)
25.12.2014 16:08 4,9 C 3,3 C 95 % 1024,2 hPa 0,0 l/m 0 min 0 min 11 W/m 18,8 km/h (3 Bft)
25.12.2014 16:10 4,9 C 3,3 C 95 % 1024,2 hPa 0,0 l/m 0 min 0 min 11 W/m 16,7 km/h (3 Bft)
25.12.2014 16:12 4,9 C 3,3 C 95 % 1024,2 hPa 0,0 l/m 0 min 0 min 11 W/m 16,7 km/h (3 Bft)
25.12.2014 16:14 4,9 C 3,3 C 95 % 1024,3 hPa 0,0 l/m 0 min 0 min 10 W/m 14,6 km/h (3 Bft)
25.12.2014 16:16 4,9 C 3,3 C 95 % 1024,3 hPa 0,0 l/m 0 min 0 min 9 W/m 16,7 km/h (3 Bft)
25.12.2014 16:18 4,8 C 3,3 C 95 % 1024,4 hPa 0,0 l/m 0 min 0 min 9 W/m 23,0 km/h (4 Bft)
25.12.2014 16:20 4,8 C 3,3 C 95 % 1024,4 hPa 0,0 l/m 0 min 0 min 8 W/m 20,9 km/h (4 Bft)
25.12.2014 16:22 4,8 C 2,8 C 95 % 1024,4 hPa 0,0 l/m 0 min 0 min 7 W/m 14,6 km/h (3 Bft)
25.12.2014 16:24 4,8 C 2,8 C 95 % 1024,4 hPa 0,0 l/m 0 min 0 min 7 W/m 14,6 km/h (3 Bft)
25.12.2014 16:26 4,8 C 2,8 C 95 % 1024,5 hPa 0,0 l/m 0 min 0 min 7 W/m 10,5 km/h (2 Bft)
25.12.2014 16:28 4,7 C 2,8 C 95 % 1024,5 hPa 0,0 l/m 0 min 0 min 6 W/m 12,6 km/h (3 Bft)
25.12.2014 16:30 4,7 C 3,3 C 95 % 1024,6 hPa 0,0 l/m 0 min 0 min 5 W/m 14,6 km/h (3 Bft)
25.12.2014 16:32 4,7 C 3,3 C 95 % 1024,6 hPa 0,0 l/m 0 min 0 min 0 W/m 14,6 km/h (3 Bft)
25.12.2014 16:34 4,7 C 3,3 C 95 % 1024,6 hPa 0,0 l/m 0 min 0 min 0 W/m 14,6 km/h (3 Bft)
25.12.2014 16:36 4,7 C 3,3 C 95 % 1024,6 hPa 0,0 l/m 0 min 0 min 0 W/m 10,5 km/h (2 Bft)
25.12.2014 16:38 4,7 C 3,3 C 95 % 1024,7 hPa 0,0 l/m 0 min 0 min 0 W/m 10,5 km/h (2 Bft)
25.12.2014 16:40 4,7 C 3,3 C 95 % 1024,7 hPa 0,0 l/m 0 min 0 min 0 W/m 10,5 km/h (2 Bft)
25.12.2014 16:42 4,7 C 3,3 C 95 % 1024,8 hPa 0,0 l/m 0 min 0 min 0 W/m 14,6 km/h (3 Bft)
25.12.2014 16:44 4,7 C 3,3 C 95 % 1024,8 hPa 0,0 l/m 0 min 0 min 0 W/m 16,7 km/h (3 Bft)
25.12.2014 16:46 4,7 C 3,3 C 95 % 1024,9 hPa 0,0 l/m 0 min 0 min 0 W/m 12,6 km/h (3 Bft)
25.12.2014 16:48 4,6 C 3,3 C 95 % 1024,9 hPa 0,0 l/m 0 min 0 min 0 W/m 12,6 km/h (3 Bft)
25.12.2014 16:50 4,6 C 3,3 C 95 % 1025,0 hPa 0,0 l/m 0 min 0 min 0 W/m 18,8 km/h (3 Bft)
25.12.2014 16:52 4,6 C 3,3 C 95 % 1025,1 hPa 0,0 l/m 0 min 0 min 0 W/m 20,9 km/h (4 Bft)
25.12.2014 16:54 4,6 C 3,3 C 95 % 1025,1 hPa 0,0 l/m 0 min 0 min 0 W/m 16,7 km/h (3 Bft)
25.12.2014 16:56 4,6 C 3,3 C 95 % 1025,0 hPa 0,0 l/m 0 min 0 min 0 W/m 12,6 km/h (3 Bft)
25.12.2014 16:58 4,6 C 3,3 C 95 % 1025,0 hPa 0,0 l/m 0 min 0 min 0 W/m 12,6 km/h (3 Bft)
25.12.2014 17:00 4,6 C 3,3 C 95 % 1025,0 hPa 0,0 l/m 0 min 0 min 0 W/m 14,6 km/h (3 Bft)
25.12.2014 17:02 4,6 C 3,3 C 95 % 1025,0 hPa 0,0 l/m 0 min 0 min 0 W/m 14,6 km/h (3 Bft)
25.12.2014 17:04 4,6 C 3,3 C 95 % 1025,1 hPa 0,0 l/m 0 min 0 min 0 W/m 16,7 km/h (3 Bft)
25.12.2014 17:06 4,6 C 2,8 C 95 % 1025,1 hPa 0,0 l/m 0 min 0 min 0 W/m 20,9 km/h (4 Bft)
25.12.2014 17:08 4,6 C 2,8 C 95 % 1025,1 hPa 0,0 l/m 0 min 0 min 0 W/m 14,6 km/h (3 Bft)
25.12.2014 17:10 4,6 C 2,8 C 95 % 1025,1 hPa 0,0 l/m 0 min 0 min 0 W/m 12,6 km/h (3 Bft)
25.12.2014 17:12 4,5 C 2,8 C 95 % 1025,1 hPa 0,0 l/m 0 min 0 min 0 W/m 10,5 km/h (2 Bft)
25.12.2014 17:14 4,5 C 2,8 C 95 % 1025,0 hPa 0,0 l/m 0 min 0 min 0 W/m 10,5 km/h (2 Bft)
25.12.2014 17:16 4,5 C 2,8 C 95 % 1025,0 hPa 0,0 l/m 0 min 0 min 0 W/m 16,7 km/h (3 Bft)
25.12.2014 17:18 4,5 C 2,8 C 95 % 1025,1 hPa 0,0 l/m 0 min 0 min 0 W/m 23,0 km/h (4 Bft)
25.12.2014 17:20 4,4 C 2,8 C 95 % 1025,1 hPa 0,0 l/m 0 min 0 min 0 W/m 16,7 km/h (3 Bft)
25.12.2014 17:22 4,4 C 2,8 C 95 % 1025,1 hPa 0,0 l/m 0 min 0 min 0 W/m 12,6 km/h (3 Bft)
25.12.2014 17:24 4,4 C 2,8 C 95 % 1025,1 hPa 0,0 l/m 0 min 0 min 0 W/m 10,5 km/h (2 Bft)
25.12.2014 17:26 4,4 C 2,8 C 95 % 1025,2 hPa 0,0 l/m 0 min 0 min 0 W/m 14,6 km/h (3 Bft)
25.12.2014 17:28 4,4 C 2,8 C 95 % 1025,2 hPa 0,0 l/m 0 min 0 min 0 W/m 14,6 km/h (3 Bft)
25.12.2014 17:30 4,4 C 2,8 C 95 % 1025,1 hPa 0,0 l/m 0 min 0 min 0 W/m 20,9 km/h (4 Bft)
25.12.2014 17:32 4,4 C 2,8 C 95 % 1025,2 hPa 0,0 l/m 0 min 0 min 0 W/m 12,6 km/h (3 Bft)
25.12.2014 17:34 4,4 C 2,8 C 95 % 1025,2 hPa 0,0 l/m 0 min 0 min 0 W/m 10,5 km/h (2 Bft)
25.12.2014 17:36 4,4 C 2,8 C 95 % 1025,2 hPa 0,0 l/m 0 min 0 min 0 W/m 14,6 km/h (3 Bft)
25.12.2014 17:38 4,4 C 2,8 C 95 % 1025,3 hPa 0,2 l/m 0 min 0 min 0 W/m 20,9 km/h (4 Bft)
25.12.2014 17:40 4,4 C 2,8 C 95 % 1025,3 hPa 0,0 l/m 0 min 0 min 0 W/m 20,9 km/h (4 Bft)
25.12.2014 17:42 4,3 C 2,8 C 95 % 1025,2 hPa 0,0 l/m 0 min 0 min 0 W/m 16,7 km/h (3 Bft)
25.12.2014 17:44 4,3 C 2,8 C 95 % 1025,2 hPa 0,0 l/m 0 min 0 min 0 W/m 18,8 km/h (3 Bft)
25.12.2014 17:46 4,3 C 2,8 C 95 % 1025,3 hPa 0,0 l/m 0 min 0 min 0 W/m 20,9 km/h (4 Bft)
25.12.2014 17:48 4,3 C 2,8 C 95 % 1025,3 hPa 0,0 l/m 0 min 0 min 0 W/m 8,4 km/h (2 Bft)
25.12.2014 17:50 4,2 C 2,2 C 95 % 1025,4 hPa 0,0 l/m 0 min 0 min 0 W/m 14,6 km/h (3 Bft)
25.12.2014 17:52 4,2 C 2,2 C 95 % 1025,3 hPa 0,0 l/m 0 min 0 min 0 W/m 14,6 km/h (3 Bft)
25.12.2014 17:54 4,2 C 2,2 C 95 % 1025,3 hPa 0,0 l/m 0 min 0 min 0 W/m 20,9 km/h (4 Bft)
25.12.2014 17:56 4,2 C 2,2 C 95 % 1025,4 hPa 0,0 l/m 0 min 0 min 0 W/m 14,6 km/h (3 Bft)
25.12.2014 17:58 4,1 C 2,2 C 94 % 1025,4 hPa 0,0 l/m 0 min 0 min 0 W/m 12,6 km/h (3 Bft)
25.12.2014 18:00 4,1 C 2,2 C 94 % 1025,4 hPa 0,0 l/m 0 min 0 min 0 W/m 10,5 km/h (2 Bft)
25.12.2014 18:02 4,0 C 2,2 C 94 % 1025,4 hPa 0,0 l/m 0 min 0 min 0 W/m 12,6 km/h (3 Bft)
25.12.2014 18:05 3,9 C 1,7 C 94 % 1025,4 hPa 0,0 l/m 0 min 0 min 0 W/m 10,5 km/h (2 Bft)
25.12.2014 18:08 3,9 C 1,7 C 94 % 1025,4 hPa 0,0 l/m 0 min 0 min 0 W/m 14,6 km/h (3 Bft)
25.12.2014 18:10 3,8 C 1,7 C 94 % 1025,5 hPa 0,0 l/m 0 min 0 min 0 W/m 12,6 km/h (3 Bft)
25.12.2014 18:12 3,8 C 1,7 C 94 % 1025,5 hPa 0,0 l/m 0 min 0 min 0 W/m 12,6 km/h (3 Bft)
25.12.2014 18:14 3,7 C 1,7 C 94 % 1025,5 hPa 0,0 l/m 0 min 0 min 0 W/m 12,6 km/h (3 Bft)
25.12.2014 18:16 3,7 C 1,7 C 94 % 1025,6 hPa 0,0 l/m 0 min 0 min 0 W/m 10,5 km/h (2 Bft)
25.12.2014 18:18 3,7 C 1,7 C 94 % 1025,6 hPa 0,0 l/m 0 min 0 min 0 W/m 10,5 km/h (2 Bft)
25.12.2014 18:20 3,7 C 1,7 C 94 % 1025,6 hPa 0,0 l/m 0 min 0 min 0 W/m 14,6 km/h (3 Bft)
25.12.2014 18:22 3,6 C 1,7 C 94 % 1025,7 hPa 0,0 l/m 0 min 0 min 0 W/m 14,6 km/h (3 Bft)
25.12.2014 18:24 3,6 C 1,7 C 94 % 1025,7 hPa 0,0 l/m 0 min 0 min 0 W/m 12,6 km/h (3 Bft)
25.12.2014 18:26 3,5 C 1,7 C 94 % 1025,7 hPa 0,0 l/m 0 min 0 min 0 W/m 10,5 km/h (2 Bft)
25.12.2014 18:28 3,4 C 1,7 C 94 % 1025,8 hPa 0,0 l/m 0 min 0 min 0 W/m 12,6 km/h (3 Bft)
25.12.2014 18:30 3,4 C 1,7 C 94 % 1025,8 hPa 0,0 l/m 0 min 0 min 0 W/m 10,5 km/h (2 Bft)
25.12.2014 18:32 3,4 C 1,7 C 93 % 1025,9 hPa 0,0 l/m 0 min 0 min 0 W/m 12,6 km/h (3 Bft)
25.12.2014 18:34 3,4 C 1,7 C 94 % 1025,9 hPa 0,0 l/m 0 min 0 min 0 W/m 8,4 km/h (2 Bft)
25.12.2014 18:36 3,3 C 1,7 C 94 % 1025,9 hPa 0,0 l/m 0 min 0 min 0 W/m 14,6 km/h (3 Bft)
25.12.2014 18:38 3,3 C 1,7 C 94 % 1025,9 hPa 0,0 l/m 0 min 0 min 0 W/m 16,7 km/h (3 Bft)
25.12.2014 18:40 3,3 C 1,1 C 94 % 1025,9 hPa 0,0 l/m 0 min 0 min 0 W/m 8,4 km/h (2 Bft)
25.12.2014 18:42 3,3 C 1,1 C 94 % 1025,9 hPa 0,0 l/m 0 min 0 min 0 W/m 12,6 km/h (3 Bft)
25.12.2014 18:44 3,2 C 1,1 C 94 % 1025,9 hPa 0,0 l/m 0 min 0 min 0 W/m 12,6 km/h (3 Bft)
25.12.2014 18:46 3,2 C 1,1 C 93 % 1025,9 hPa 0,0 l/m 0 min 0 min 0 W/m 12,6 km/h (3 Bft)
25.12.2014 18:48 3,2 C 1,1 C 93 % 1025,9 hPa 0,0 l/m 0 min 0 min 0 W/m 8,4 km/h (2 Bft)
25.12.2014 18:50 3,2 C 1,1 C 93 % 1025,9 hPa 0,0 l/m 0 min 0 min 0 W/m 8,4 km/h (2 Bft)
25.12.2014 18:52 3,1 C 1,1 C 93 % 1025,9 hPa 0,0 l/m 0 min 0 min 0 W/m 8,4 km/h (2 Bft)
25.12.2014 18:54 3,1 C 1,1 C 93 % 1026,0 hPa 0,0 l/m 0 min 0 min 0 W/m 10,5 km/h (2 Bft)
25.12.2014 18:56 3,1 C 1,1 C 93 % 1026,0 hPa 0,0 l/m 0 min 0 min 0 W/m 10,5 km/h (2 Bft)
25.12.2014 18:58 3,1 C 1,1 C 93 % 1026,0 hPa 0,0 l/m 0 min 0 min 0 W/m 10,5 km/h (2 Bft)
25.12.2014 19:00 3,0 C 1,1 C 93 % 1026,0 hPa 0,0 l/m 0 min 0 min 0 W/m 12,6 km/h (3 Bft)
25.12.2014 19:02 3,0 C 1,1 C 93 % 1026,0 hPa 0,0 l/m 0 min 0 min 0 W/m 10,5 km/h (2 Bft)
25.12.2014 19:04 3,0 C 1,1 C 93 % 1026,0 hPa 0,0 l/m 0 min 0 min 0 W/m 12,6 km/h (3 Bft)
25.12.2014 19:06 2,9 C 1,1 C 93 % 1026,0 hPa 0,0 l/m 0 min 0 min 0 W/m 10,5 km/h (2 Bft)
25.12.2014 19:08 2,9 C 1,1 C 94 % 1026,1 hPa 0,0 l/m 0 min 0 min 0 W/m 10,5 km/h (2 Bft)
25.12.2014 19:10 2,9 C 1,1 C 94 % 1026,1 hPa 0,0 l/m 0 min 0 min 0 W/m 12,6 km/h (3 Bft)
25.12.2014 19:12 2,9 C 1,1 C 94 % 1026,1 hPa 0,0 l/m 0 min 0 min 0 W/m 10,5 km/h (2 Bft)
25.12.2014 19:14 2,9 C 1,1 C 94 % 1026,1 hPa 0,0 l/m 0 min 0 min 0 W/m 14,6 km/h (3 Bft)
25.12.2014 19:16 2,8 C 1,1 C 93 % 1026,2 hPa 0,0 l/m 0 min 0 min 0 W/m 12,6 km/h (3 Bft)
25.12.2014 19:18 2,8 C 1,1 C 94 % 1026,1 hPa 0,0 l/m 0 min 0 min 0 W/m 10,5 km/h (2 Bft)
25.12.2014 19:20 2,8 C 1,1 C 94 % 1026,2 hPa 0,0 l/m 0 min 0 min 0 W/m 8,4 km/h (2 Bft)
25.12.2014 19:22 2,8 C 1,1 C 94 % 1026,2 hPa 0,0 l/m 0 min 0 min 0 W/m 8,4 km/h (2 Bft)
25.12.2014 19:24 2,8 C 1,1 C 94 % 1026,2 hPa 0,0 l/m 0 min 0 min 0 W/m 12,6 km/h (3 Bft)
25.12.2014 19:26 2,7 C 1,1 C 94 % 1026,2 hPa 0,0 l/m 0 min 0 min 0 W/m 14,6 km/h (3 Bft)
25.12.2014 19:28 2,7 C 1,1 C 94 % 1026,2 hPa 0,0 l/m 0 min 0 min 0 W/m 10,5 km/h (2 Bft)
25.12.2014 19:30 2,7 C 1,1 C 94 % 1026,3 hPa 0,0 l/m 0 min 0 min 0 W/m 8,4 km/h (2 Bft)
25.12.2014 19:32 2,7 C 1,1 C 94 % 1026,3 hPa 0,0 l/m 0 min 0 min 0 W/m 10,5 km/h (2 Bft)
25.12.2014 19:34 2,7 C 1,1 C 94 % 1026,3 hPa 0,0 l/m 0 min 0 min 0 W/m 8,4 km/h (2 Bft)
25.12.2014 19:36 2,7 C 1,1 C 94 % 1026,3 hPa 0,0 l/m 0 min 0 min 0 W/m 8,4 km/h (2 Bft)
25.12.2014 19:38 2,7 C 1,1 C 94 % 1026,4 hPa 0,0 l/m 0 min 0 min 0 W/m 10,5 km/h (2 Bft)
25.12.2014 19:40 2,6 C 1,1 C 94 % 1026,4 hPa 0,0 l/m 0 min 0 min 0 W/m 8,4 km/h (2 Bft)
25.12.2014 19:42 2,6 C 1,1 C 94 % 1026,4 hPa 0,0 l/m 0 min 0 min 0 W/m 12,6 km/h (3 Bft)
25.12.2014 19:44 2,6 C 1,1 C 94 % 1026,4 hPa 0,0 l/m 0 min 0 min 0 W/m 14,6 km/h (3 Bft)
25.12.2014 19:46 2,6 C 1,1 C 94 % 1026,3 hPa 0,0 l/m 0 min 0 min 0 W/m 10,5 km/h (2 Bft)
25.12.2014 19:48 2,6 C 1,1 C 94 % 1026,4 hPa 0,0 l/m 0 min 0 min 0 W/m 10,5 km/h (2 Bft)
25.12.2014 19:50 2,6 C 1,1 C 94 % 1026,4 hPa 0,0 l/m 0 min 0 min 0 W/m 8,4 km/h (2 Bft)
25.12.2014 19:52 2,5 C 1,1 C 94 % 1026,6 hPa 0,0 l/m 0 min 0 min 0 W/m 14,6 km/h (3 Bft)
25.12.2014 19:54 2,5 C 1,1 C 94 % 1026,6 hPa 0,0 l/m 0 min 0 min 0 W/m 8,4 km/h (2 Bft)
25.12.2014 19:56 2,5 C 1,1 C 94 % 1026,6 hPa 0,0 l/m 0 min 0 min 0 W/m 8,4 km/h (2 Bft)
25.12.2014 19:58 2,4 C 1,1 C 94 % 1026,7 hPa 0,0 l/m 0 min 0 min 0 W/m 8,4 km/h (2 Bft)
25.12.2014 20:00 2,4 C 1,1 C 94 % 1026,6 hPa 0,0 l/m 0 min 0 min 0 W/m 10,5 km/h (2 Bft)
25.12.2014 20:02 2,4 C 1,1 C 94 % 1026,7 hPa 0,0 l/m 0 min 0 min 0 W/m 8,4 km/h (2 Bft)
25.12.2014 20:04 2,4 C 1,1 C 94 % 1026,7 hPa 0,0 l/m 0 min 0 min 0 W/m 10,5 km/h (2 Bft)
25.12.2014 20:06 2,4 C 1,1 C 94 % 1026,7 hPa 0,0 l/m 0 min 0 min 0 W/m 10,5 km/h (2 Bft)
25.12.2014 20:08 2,4 C 0,6 C 94 % 1026,7 hPa 0,0 l/m 0 min 0 min 0 W/m 10,5 km/h (2 Bft)
25.12.2014 20:10 2,4 C 0,6 C 94 % 1026,7 hPa 0,0 l/m 0 min 0 min 0 W/m 6,3 km/h (2 Bft)
25.12.2014 20:12 2,4 C 0,6 C 94 % 1026,7 hPa 0,0 l/m 0 min 0 min 0 W/m 12,6 km/h (3 Bft)
25.12.2014 20:14 2,3 C 0,6 C 94 % 1026,8 hPa 0,0 l/m 0 min 0 min 0 W/m 10,5 km/h (2 Bft)
25.12.2014 20:16 2,3 C 0,6 C 94 % 1026,7 hPa 0,0 l/m 0 min 0 min 0 W/m 10,5 km/h (2 Bft)
25.12.2014 20:18 2,3 C 0,6 C 94 % 1026,7 hPa 0,0 l/m 0 min 0 min 0 W/m 10,5 km/h (2 Bft)
25.12.2014 20:20 2,3 C 0,6 C 94 % 1026,7 hPa 0,0 l/m 0 min 0 min 0 W/m 8,4 km/h (2 Bft)
25.12.2014 20:22 2,3 C 0,6 C 94 % 1026,8 hPa 0,0 l/m 0 min 0 min 0 W/m 8,4 km/h (2 Bft)
25.12.2014 20:24 2,3 C 0,6 C 95 % 1026,8 hPa 0,0 l/m 0 min 0 min 0 W/m 8,4 km/h (2 Bft)
25.12.2014 20:26 2,3 C 0,6 C 95 % 1026,8 hPa 0,0 l/m 0 min 0 min 0 W/m 8,4 km/h (2 Bft)
25.12.2014 20:28 2,2 C 0,6 C 95 % 1026,8 hPa 0,0 l/m 0 min 0 min 0 W/m 8,4 km/h (2 Bft)
25.12.2014 20:30 2,2 C 0,6 C 95 % 1026,8 hPa 0,0 l/m 0 min 0 min 0 W/m 8,4 km/h (2 Bft)
25.12.2014 20:32 2,2 C 0,6 C 95 % 1026,8 hPa 0,0 l/m 0 min 0 min 0 W/m 6,3 km/h (2 Bft)
25.12.2014 20:34 2,2 C 0,6 C 95 % 1026,8 hPa 0,0 l/m 0 min 0 min 0 W/m 8,4 km/h (2 Bft)
25.12.2014 20:36 2,1 C 0,6 C 95 % 1026,8 hPa 0,0 l/m 0 min 0 min 0 W/m 10,5 km/h (2 Bft)
25.12.2014 20:38 2,1 C 0,6 C 95 % 1026,8 hPa 0,0 l/m 0 min 0 min 0 W/m 10,5 km/h (2 Bft)
25.12.2014 20:40 2,1 C 0,6 C 94 % 1026,8 hPa 0,0 l/m 0 min 0 min 0 W/m 10,5 km/h (2 Bft)
25.12.2014 20:42 2,1 C 0,6 C 94 % 1026,9 hPa 0,0 l/m 0 min 0 min 0 W/m 10,5 km/h (2 Bft)
25.12.2014 20:44 2,1 C 0,6 C 95 % 1026,9 hPa 0,0 l/m 0 min 0 min 0 W/m 8,4 km/h (2 Bft)
25.12.2014 20:46 2,1 C 0,6 C 95 % 1027,0 hPa 0,0 l/m 0 min 0 min 0 W/m 8,4 km/h (2 Bft)
25.12.2014 20:48 2,1 C 0,6 C 95 % 1027,0 hPa 0,0 l/m 0 min 0 min 0 W/m 10,5 km/h (2 Bft)
25.12.2014 20:50 2,0 C 0,6 C 95 % 1027,1 hPa 0,0 l/m 0 min 0 min 0 W/m 6,3 km/h (2 Bft)
25.12.2014 20:52 2,0 C 0,6 C 95 % 1027,1 hPa 0,0 l/m 0 min 0 min 0 W/m 6,3 km/h (2 Bft)
25.12.2014 20:54 2,0 C 0,6 C 95 % 1027,1 hPa 0,0 l/m 0 min 0 min 0 W/m 6,3 km/h (2 Bft)
25.12.2014 20:56 2,0 C 0,6 C 95 % 1027,1 hPa 0,0 l/m 0 min 0 min 0 W/m 6,3 km/h (2 Bft)
25.12.2014 20:58 1,9 C 0,6 C 95 % 1027,2 hPa 0,0 l/m 0 min 0 min 0 W/m 8,4 km/h (2 Bft)
25.12.2014 21:00 1,9 C 0,6 C 95 % 1027,2 hPa 0,0 l/m 0 min 0 min 0 W/m 10,5 km/h (2 Bft)
25.12.2014 21:02 1,9 C 0,6 C 95 % 1027,2 hPa 0,0 l/m 0 min 0 min 0 W/m 8,4 km/h (2 Bft)
25.12.2014 21:04 1,9 C 0,6 C 95 % 1027,2 hPa 0,0 l/m 0 min 0 min 0 W/m 6,3 km/h (2 Bft)
25.12.2014 21:06 1,9 C 0,6 C 95 % 1027,3 hPa 0,0 l/m 0 min 0 min 0 W/m 8,4 km/h (2 Bft)
25.12.2014 21:08 1,9 C 0,6 C 95 % 1027,3 hPa 0,0 l/m 0 min 0 min 0 W/m 8,4 km/h (2 Bft)
25.12.2014 21:10 1,9 C 0,6 C 95 % 1027,3 hPa 0,0 l/m 0 min 0 min 0 W/m 6,3 km/h (2 Bft)
25.12.2014 21:12 1,9 C 0,0 C 95 % 1027,3 hPa 0,0 l/m 0 min 0 min 0 W/m 8,4 km/h (2 Bft)
25.12.2014 21:14 1,8 C 0,0 C 95 % 1027,3 hPa 0,0 l/m 0 min 0 min 0 W/m 6,3 km/h (2 Bft)
25.12.2014 21:16 1,8 C 0,0 C 95 % 1027,3 hPa 0,0 l/m 0 min 0 min 0 W/m 8,4 km/h (2 Bft)
25.12.2014 21:18 1,8 C 0,6 C 95 % 1027,4 hPa 0,0 l/m 0 min 0 min 0 W/m 8,4 km/h (2 Bft)
25.12.2014 21:20 1,8 C 0,0 C 95 % 1027,3 hPa 0,0 l/m 0 min 0 min 0 W/m 8,4 km/h (2 Bft)
25.12.2014 21:22 1,8 C 0,6 C 95 % 1027,3 hPa 0,0 l/m 0 min 0 min 0 W/m 10,5 km/h (2 Bft)
25.12.2014 21:24 1,8 C 0,6 C 95 % 1027,3 hPa 0,0 l/m 0 min 0 min 0 W/m 8,4 km/h (2 Bft)
25.12.2014 21:26 1,8 C 0,6 C 95 % 1027,4 hPa 0,0 l/m 0 min 0 min 0 W/m 8,4 km/h (2 Bft)
25.12.2014 21:28 1,8 C 0,6 C 95 % 1027,4 hPa 0,0 l/m 0 min 0 min 0 W/m 10,5 km/h (2 Bft)
25.12.2014 21:30 1,8 C 0,6 C 95 % 1027,5 hPa 0,0 l/m 0 min 0 min 0 W/m 8,4 km/h (2 Bft)
25.12.2014 21:32 1,7 C 0,6 C 95 % 1027,4 hPa 0,0 l/m 0 min 0 min 0 W/m 10,5 km/h (2 Bft)
25.12.2014 21:34 1,8 C 1,1 C 95 % 1027,4 hPa 0,0 l/m 0 min 0 min 0 W/m 12,6 km/h (3 Bft)
25.12.2014 21:36 1,8 C 1,1 C 95 % 1027,4 hPa 0,0 l/m 0 min 0 min 0 W/m 10,5 km/h (2 Bft)
25.12.2014 21:38 1,8 C 1,1 C 95 % 1027,4 hPa 0,0 l/m 0 min 0 min 0 W/m 12,6 km/h (3 Bft)
25.12.2014 21:40 1,8 C 1,1 C 95 % 1027,4 hPa 0,0 l/m 0 min 0 min 0 W/m 14,6 km/h (3 Bft)
25.12.2014 21:42 1,9 C 1,1 C 95 % 1027,4 hPa 0,0 l/m 0 min 0 min 0 W/m 10,5 km/h (2 Bft)
25.12.2014 21:44 1,9 C 1,1 C 95 % 1027,4 hPa 0,0 l/m 0 min 0 min 0 W/m 8,4 km/h (2 Bft)
25.12.2014 21:46 1,9 C 1,1 C 95 % 1027,4 hPa 0,0 l/m 0 min 0 min 0 W/m 8,4 km/h (2 Bft)
25.12.2014 21:48 1,9 C 1,1 C 95 % 1027,5 hPa 0,0 l/m 0 min 0 min 0 W/m 12,6 km/h (3 Bft)
25.12.2014 21:50 1,9 C 1,1 C 95 % 1027,6 hPa 0,0 l/m 0 min 0 min 0 W/m 8,4 km/h (2 Bft)
25.12.2014 21:52 2,0 C 1,1 C 95 % 1027,5 hPa 0,0 l/m 0 min 0 min 0 W/m 12,6 km/h (3 Bft)
25.12.2014 21:54 2,0 C 1,1 C 95 % 1027,6 hPa 0,0 l/m 0 min 0 min 0 W/m 10,5 km/h (2 Bft)
25.12.2014 21:56 2,0 C 1,1 C 95 % 1027,5 hPa 0,0 l/m 0 min 0 min 0 W/m 10,5 km/h (2 Bft)
25.12.2014 21:58 2,1 C 1,1 C 96 % 1027,5 hPa 0,0 l/m 0 min 0 min 0 W/m 8,4 km/h (2 Bft)
25.12.2014 22:00 2,1 C 1,1 C 96 % 1027,6 hPa 0,0 l/m 0 min 0 min 0 W/m 6,3 km/h (2 Bft)
25.12.2014 22:02 2,1 C 1,1 C 96 % 1027,6 hPa 0,0 l/m 0 min 0 min 0 W/m 8,4 km/h (2 Bft)
25.12.2014 22:04 2,1 C 1,1 C 96 % 1027,7 hPa 0,0 l/m 0 min 0 min 0 W/m 10,5 km/h (2 Bft)
25.12.2014 22:06 2,1 C 1,1 C 96 % 1027,7 hPa 0,0 l/m 0 min 0 min 0 W/m 12,6 km/h (3 Bft)
25.12.2014 22:08 2,2 C 1,1 C 96 % 1027,7 hPa 0,0 l/m 0 min 0 min 0 W/m 10,5 km/h (2 Bft)
25.12.2014 22:10 2,2 C 1,1 C 96 % 1027,6 hPa 0,0 l/m 0 min 0 min 0 W/m 16,7 km/h (3 Bft)
25.12.2014 22:12 2,2 C 1,1 C 96 % 1027,6 hPa 0,0 l/m 0 min 0 min 0 W/m 14,6 km/h (3 Bft)
25.12.2014 22:14 2,3 C 1,1 C 96 % 1027,6 hPa 0,0 l/m 0 min 0 min 0 W/m 10,5 km/h (2 Bft)
25.12.2014 22:16 2,3 C 1,1 C 96 % 1027,6 hPa 0,0 l/m 0 min 0 min 0 W/m 12,6 km/h (3 Bft)
25.12.2014 22:18 2,3 C 1,1 C 96 % 1027,6 hPa 0,0 l/m 0 min 0 min 0 W/m 10,5 km/h (2 Bft)
25.12.2014 22:20 2,3 C 1,1 C 96 % 1027,6 hPa 0,0 l/m 0 min 0 min 0 W/m 12,6 km/h (3 Bft)
25.12.2014 22:22 2,3 C 1,1 C 96 % 1027,6 hPa 0,0 l/m 0 min 0 min 0 W/m 12,6 km/h (3 Bft)
25.12.2014 22:24 2,3 C 1,1 C 96 % 1027,6 hPa 0,0 l/m 0 min 0 min 0 W/m 10,5 km/h (2 Bft)
25.12.2014 22:26 2,2 C 1,1 C 96 % 1027,6 hPa 0,0 l/m 0 min 0 min 0 W/m 10,5 km/h (2 Bft)
25.12.2014 22:28 2,2 C 1,1 C 96 % 1027,6 hPa 0,0 l/m 0 min 0 min 0 W/m 8,4 km/h (2 Bft)
25.12.2014 22:30 2,3 C 1,1 C 96 % 1027,7 hPa 0,0 l/m 0 min 0 min 0 W/m 8,4 km/h (2 Bft)
25.12.2014 22:32 2,2 C 1,1 C 96 % 1027,7 hPa 0,0 l/m 0 min 0 min 0 W/m 8,4 km/h (2 Bft)
25.12.2014 22:34 2,2 C 1,1 C 96 % 1027,6 hPa 0,0 l/m 0 min 0 min 0 W/m 10,5 km/h (2 Bft)
25.12.2014 22:36 2,2 C 1,1 C 96 % 1027,6 hPa 0,0 l/m 0 min 0 min 0 W/m 12,6 km/h (3 Bft)
25.12.2014 22:38 2,2 C 1,1 C 96 % 1027,5 hPa 0,0 l/m 0 min 0 min 0 W/m 10,5 km/h (2 Bft)
25.12.2014 22:40 2,2 C 0,6 C 96 % 1027,5 hPa 0,0 l/m 0 min 0 min 0 W/m 10,5 km/h (2 Bft)
25.12.2014 22:42 2,2 C 0,6 C 96 % 1027,6 hPa 0,0 l/m 0 min 0 min 0 W/m 8,4 km/h (2 Bft)
25.12.2014 22:44 2,2 C 0,6 C 96 % 1027,6 hPa 0,0 l/m 0 min 0 min 0 W/m 6,3 km/h (2 Bft)
25.12.2014 22:46 2,2 C 0,6 C 96 % 1027,6 hPa 0,0 l/m 0 min 0 min 0 W/m 6,3 km/h (2 Bft)
25.12.2014 22:48 2,1 C 0,6 C 96 % 1027,6 hPa 0,0 l/m 0 min 0 min 0 W/m 12,6 km/h (3 Bft)
25.12.2014 22:50 2,1 C 0,6 C 96 % 1027,6 hPa 0,0 l/m 0 min 0 min 0 W/m 10,5 km/h (2 Bft)
25.12.2014 22:52 2,1 C 0,6 C 96 % 1027,6 hPa 0,0 l/m 0 min 0 min 0 W/m 6,3 km/h (2 Bft)
25.12.2014 22:54 2,1 C 0,6 C 96 % 1027,6 hPa 0,0 l/m 0 min 0 min 0 W/m 8,4 km/h (2 Bft)
25.12.2014 22:56 2,1 C 0,6 C 96 % 1027,6 hPa 0,0 l/m 0 min 0 min 0 W/m 4,2 km/h (1 Bft)
25.12.2014 22:58 2,1 C 0,6 C 96 % 1027,6 hPa 0,0 l/m 0 min 0 min 0 W/m 4,2 km/h (1 Bft)
25.12.2014 23:00 2,0 C 0,6 C 96 % 1027,6 hPa 0,0 l/m 0 min 0 min 0 W/m 8,4 km/h (2 Bft)
25.12.2014 23:02 2,0 C 0,6 C 96 % 1027,6 hPa 0,0 l/m 0 min 0 min 0 W/m 6,3 km/h (2 Bft)
25.12.2014 23:04 1,9 C 0,6 C 96 % 1027,6 hPa 0,0 l/m 0 min 0 min 0 W/m 8,4 km/h (2 Bft)
25.12.2014 23:06 1,9 C 0,6 C 96 % 1027,6 hPa 0,0 l/m 0 min 0 min 0 W/m 8,4 km/h (2 Bft)
25.12.2014 23:08 1,9 C 0,6 C 96 % 1027,6 hPa 0,0 l/m 0 min 0 min 0 W/m 8,4 km/h (2 Bft)
25.12.2014 23:10 1,9 C 0,6 C 96 % 1027,7 hPa 0,0 l/m 0 min 0 min 0 W/m 10,5 km/h (2 Bft)
25.12.2014 23:12 1,9 C 0,6 C 96 % 1027,7 hPa 0,0 l/m 0 min 0 min 0 W/m 6,3 km/h (2 Bft)
25.12.2014 23:14 1,8 C 0,6 C 96 % 1027,7 hPa 0,0 l/m 0 min 0 min 0 W/m 10,5 km/h (2 Bft)
25.12.2014 23:16 1,8 C 0,6 C 96 % 1027,7 hPa 0,0 l/m 0 min 0 min 0 W/m 8,4 km/h (2 Bft)
25.12.2014 23:18 1,8 C 0,6 C 96 % 1027,7 hPa 0,0 l/m 0 min 0 min 0 W/m 8,4 km/h (2 Bft)
25.12.2014 23:20 1,8 C 0,6 C 96 % 1027,8 hPa 0,0 l/m 0 min 0 min 0 W/m 8,4 km/h (2 Bft)
25.12.2014 23:22 1,8 C 0,6 C 96 % 1027,8 hPa 0,0 l/m 0 min 0 min 0 W/m 8,4 km/h (2 Bft)
25.12.2014 23:24 1,8 C 0,6 C 96 % 1027,9 hPa 0,0 l/m 0 min 0 min 0 W/m 8,4 km/h (2 Bft)
25.12.2014 23:26 1,8 C 0,6 C 96 % 1027,9 hPa 0,0 l/m 0 min 0 min 0 W/m 8,4 km/h (2 Bft)
25.12.2014 23:28 1,8 C 0,6 C 96 % 1027,9 hPa 0,0 l/m 0 min 0 min 0 W/m 10,5 km/h (2 Bft)
25.12.2014 23:30 1,7 C 0,6 C 96 % 1028,0 hPa 0,0 l/m 0 min 0 min 0 W/m 8,4 km/h (2 Bft)
25.12.2014 23:32 1,7 C 0,6 C 96 % 1027,9 hPa 0,0 l/m 0 min 0 min 0 W/m 8,4 km/h (2 Bft)
25.12.2014 23:34 1,7 C 0,6 C 96 % 1028,0 hPa 0,0 l/m 0 min 0 min 0 W/m 10,5 km/h (2 Bft)
25.12.2014 23:36 1,7 C 0,6 C 96 % 1028,0 hPa 0,0 l/m 0 min 0 min 0 W/m 12,6 km/h (3 Bft)
25.12.2014 23:38 1,7 C 0,6 C 96 % 1028,0 hPa 0,0 l/m 0 min 0 min 0 W/m 8,4 km/h (2 Bft)
25.12.2014 23:40 1,7 C 0,6 C 96 % 1028,0 hPa 0,0 l/m 0 min 0 min 0 W/m 14,6 km/h (3 Bft)
25.12.2014 23:42 1,7 C 0,6 C 96 % 1028,0 hPa 0,0 l/m 0 min 0 min 0 W/m 12,6 km/h (3 Bft)
25.12.2014 23:44 1,7 C 0,6 C 96 % 1027,9 hPa 0,0 l/m 0 min 0 min 0 W/m 10,5 km/h (2 Bft)
25.12.2014 23:46 1,7 C 0,6 C 96 % 1027,9 hPa 0,0 l/m 0 min 0 min 0 W/m 10,5 km/h (2 Bft)
25.12.2014 23:48 1,7 C 0,6 C 96 % 1027,9 hPa 0,0 l/m 0 min 0 min 0 W/m 8,4 km/h (2 Bft)
25.12.2014 23:50 1,7 C 0,6 C 96 % 1028,0 hPa 0,0 l/m 0 min 0 min 0 W/m 12,6 km/h (3 Bft)
25.12.2014 23:52 1,7 C 0,6 C 96 % 1028,1 hPa 0,0 l/m 0 min 0 min 0 W/m 10,5 km/h (2 Bft)
25.12.2014 23:54 1,7 C 0,6 C 96 % 1028,1 hPa 0,0 l/m 0 min 0 min 0 W/m 12,6 km/h (3 Bft)
25.12.2014 23:56 1,7 C 0,6 C 96 % 1028,1 hPa 0,0 l/m 0 min 0 min 0 W/m 8,4 km/h (2 Bft)
25.12.2014 23:58 1,7 C 0,6 C 96 % 1028,1 hPa 0,0 l/m 0 min 0 min 0 W/m 8,4 km/h (2 Bft)
_ Min-Zeit 21:30 21:12 13:16 00:02 - - - - 22:56
Minimum _ 1,7 C 0,0 C 86 % 1019,9 hPa - - - - 4,2 km/h (1 Bft)
_ Max-Zeit 13:08 12:54 21:58 23:52 13:18 09:00 13:14 12:05 12:08
Maximum _ 6,7 C 6,1 C 96 % 1028,1 hPa 0,6 l/m 2 min 2 min 271 W/m 39,7 km/h
W-SW (6 Bft)
Durchschnitt _ 3,9 C 2,6 C 92 % 1023,4 hPa #3,6 l/m #1:56 h #18 min. 70 W/m 19,3 km/h (3 Bft)
© 2015 W. Hausmann